Bel Air, Maryland - USA |
Yesterday's Data File |
5/7/26
Time Wind Dir Wind Spd Wind Gust Hum In Humidity Temp In Temp Raw Barom Wind Chill Press Alt Cloud Base Dens Alt Temp Out R DailyRain 24HrRain RainRate
� mph mph % % �F �F in �F ft ft ft �F/hr in in in/hr
12:00am 358 0 0 41 93 72.1 58.1 29.26 58.1 620 502 725 -2.25 0.14 0.14 0.000
12:01am 358 0 0 41 93 72.1 58.1 29.26 58.1 619 502 724 -2.20 0.00 0.14 0.000
12:02am 358 0 0 41 93 72.1 58.1 29.26 58.1 619 502 724 -2.18 0.00 0.14 0.000
12:03am 358 0 0 41 93 72.1 58.1 29.26 58.1 620 502 725 -2.14 0.00 0.14 0.000
12:04am 358 0 0 41 93 72.1 58.1 29.25 58.1 622 502 728 -2.11 0.00 0.14 0.000
12:05am 358 0 0 41 93 72.1 58.0 29.25 58.0 623 502 723 -2.17 0.00 0.14 0.000
12:06am 358 0 0 41 93 72.1 58.0 29.25 58.0 622 502 722 -2.14 0.00 0.14 0.000
12:07am 358 0 0 41 93 72.1 58.0 29.25 58.0 621 502 721 -2.10 0.00 0.14 0.000
12:08am 358 0 0 41 93 72.1 58.0 29.26 58.0 619 502 717 -2.07 0.00 0.14 0.000
12:09am 358 0 0 41 93 72.1 57.9 29.26 57.9 617 502 708 -2.13 0.00 0.14 0.000
12:10am 358 0 0 41 93 72.1 57.8 29.26 57.8 617 502 702 -2.20 0.00 0.14 0.000
12:11am 358 0 0 41 93 72.1 57.8 29.26 57.8 617 502 702 -2.16 0.00 0.14 0.000
12:12am 358 0 0 41 93 72.1 57.8 29.26 57.8 618 502 703 -2.12 0.00 0.14 0.000
12:13am 358 0 0 41 93 72.1 57.8 29.26 57.8 619 502 704 -2.09 0.00 0.14 0.000
12:14am 358 0 0 41 93 72.1 57.7 29.26 57.7 621 501 700 -2.15 0.00 0.14 0.000
12:15am 358 0 0 41 93 72.1 57.7 29.26 57.7 621 501 700 -2.12 0.00 0.14 0.000
12:16am 358 0 0 41 93 72.1 57.6 29.26 57.6 621 501 693 -2.18 0.00 0.14 0.000
12:17am 358 0 0 41 93 72.1 57.7 29.25 57.7 621 501 701 -2.05 0.00 0.14 0.000
12:18am 358 0 0 41 93 72.1 57.6 29.26 57.6 620 501 692 -2.11 0.00 0.14 0.000
12:19am 358 0 0 41 93 72.1 57.6 29.26 57.6 620 501 692 -2.08 0.00 0.14 0.000
12:20am 231 1 1 41 93 72.1 57.6 29.26 57.6 619 501 691 -2.04 0.00 0.14 0.000
12:21am 229 1 3 41 93 72.1 57.6 29.26 57.6 618 501 690 -2.01 0.00 0.14 0.000
12:22am 229 1 3 41 94 72.1 57.6 29.26 57.6 614 428 685 -1.98 0.00 0.14 0.000
12:23am 228 1 3 41 94 72.1 57.5 29.26 57.5 613 427 678 -2.04 0.00 0.14 0.000
12:24am 228 0 3 42 94 72.1 57.5 29.26 57.5 612 427 676 -2.01 0.00 0.14 0.000
12:25am 228 1 3 41 94 72.1 57.6 29.27 57.6 609 428 680 -1.88 0.00 0.14 0.000
12:26am 228 1 2 41 94 72.1 57.5 29.27 57.5 603 427 665 -1.95 0.00 0.14 0.000
12:27am 228 2 2 42 94 72.3 57.5 29.28 57.5 600 427 662 -1.91 0.00 0.14 0.000
12:28am 228 1 3 42 94 72.3 57.5 29.28 57.5 599 427 660 -1.88 0.00 0.14 0.000
12:29am 228 0 3 42 94 72.3 57.5 29.28 57.5 599 427 660 -1.85 0.00 0.14 0.000
12:30am 102 2 3 41 94 72.3 57.5 29.28 57.5 601 427 663 -1.82 0.00 0.14 0.000
12:31am 102 2 2 42 94 72.3 57.5 29.27 57.5 605 427 667 -1.79 0.00 0.14 0.000
12:32am 102 4 4 41 94 72.3 57.4 29.27 57.4 609 427 665 -1.86 0.00 0.14 0.000
12:33am 102 0 4 41 94 72.3 57.4 29.26 57.4 611 427 669 -1.83 0.00 0.14 0.000
12:34am 102 5 5 41 94 72.3 57.3 29.26 56.8 614 427 666 -1.90 0.00 0.14 0.000
12:35am 102 1 5 42 94 72.3 57.2 29.26 57.2 617 427 662 -1.97 0.00 0.14 0.000
12:36am 102 1 1 42 94 72.3 57.2 29.26 57.2 617 427 662 -1.93 0.00 0.14 0.000
12:37am 102 3 3 41 94 72.3 57.2 29.26 57.2 614 427 659 -1.90 0.01 0.15 0.000
12:38am 102 1 3 41 94 72.3 57.1 29.26 57.1 614 427 652 -1.97 0.01 0.15 0.000
12:39am 102 0 3 42 94 72.3 57.1 29.26 57.1 613 427 651 -1.94 0.01 0.15 0.000
12:40am 102 2 3 41 94 72.3 57.1 29.26 57.1 613 427 651 -1.91 0.01 0.15 0.000
12:41am 102 0 2 41 94 72.3 57.1 29.26 57.1 613 427 651 -1.87 0.01 0.15 0.000
12:42am 101 3 3 42 95 72.3 57.1 29.26 57.1 615 354 653 -1.84 0.01 0.15 0.000
12:43am 101 2 3 41 94 72.3 57.0 29.26 57.0 616 426 648 -1.91 0.02 0.16 0.100
12:44am 101 0 3 41 94 72.3 56.9 29.26 56.9 613 426 638 -1.98 0.03 0.17 0.440
12:45am 250 2 4 41 94 72.3 56.9 29.27 56.9 609 426 632 -1.95 0.03 0.17 0.440
12:46am 250 0 3 42 94 72.3 56.8 29.27 56.8 606 426 622 -2.01 0.03 0.17 0.250
12:47am 250 1 3 42 94 72.3 56.8 29.27 56.8 607 426 623 -1.98 0.03 0.17 0.180
12:48am 250 1 3 42 94 72.3 56.7 29.27 56.7 609 426 620 -2.04 0.03 0.17 0.130
12:49am 250 1 3 41 94 72.3 56.7 29.27 56.7 609 426 620 -2.01 0.03 0.17 0.110
12:50am 250 1 3 42 94 72.3 56.6 29.27 56.6 609 426 613 -2.07 0.03 0.17 0.090
12:51am 250 0 2 42 94 72.3 56.5 29.27 56.5 605 426 601 -2.14 0.03 0.17 0.080
12:52am 194 3 3 42 94 72.3 56.5 29.27 56.5 603 426 599 -2.11 0.03 0.17 0.070
12:53am 194 1 3 42 94 72.3 56.4 29.27 56.4 604 425 594 -2.17 0.03 0.17 0.060
12:54am 194 0 3 42 94 72.3 56.3 29.27 56.3 607 425 591 -2.23 0.03 0.17 0.060
12:55am 194 2 3 42 94 72.3 56.3 29.27 56.3 607 425 591 -2.20 0.03 0.17 0.050
12:56am 202 2 2 42 95 72.3 56.2 29.27 56.2 605 352 582 -2.26 0.03 0.17 0.050
12:57am 202 1 2 42 94 72.3 56.1 29.27 56.1 603 425 573 -2.32 0.03 0.17 0.040
12:58am 220 1 3 42 94 72.3 56.0 29.27 56.0 603 425 566 -2.38 0.03 0.17 0.040
12:59am 211 1 3 42 95 72.3 56.0 29.28 56.0 600 352 563 -2.34 0.03 0.17 0.040
1:00am 211 0 3 42 95 72.4 55.9 29.28 55.9 599 352 555 -2.40 0.03 0.17 0.040
1:01am 91 1 2 42 95 72.4 55.9 29.28 55.9 599 352 555 -2.36 0.03 0.17 0.000
1:02am 91 1 2 42 95 72.4 55.8 29.28 55.8 598 352 547 -2.42 0.03 0.17 0.000
1:03am 91 2 2 42 95 72.4 55.8 29.28 55.8 596 352 544 -2.38 0.03 0.17 0.000
1:04am 91 1 2 42 95 72.4 55.7 29.28 55.7 594 352 535 -2.44 0.03 0.17 0.000
1:05am 91 0 2 42 95 72.4 55.7 29.28 55.7 597 352 539 -2.40 0.03 0.17 0.000
1:06am 52 1 3 42 95 72.4 55.5 29.28 55.5 599 351 529 -2.56 0.03 0.17 0.000
1:07am 52 0 3 42 95 72.4 55.6 29.28 55.6 599 351 535 -2.42 0.03 0.17 0.000
1:08am 55 1 3 42 95 72.4 55.5 29.28 55.5 599 351 529 -2.48 0.03 0.17 0.000
1:09am 55 0 3 42 95 72.4 55.5 29.27 55.5 602 351 532 -2.44 0.03 0.17 0.000
1:10am 55 0 3 42 95 72.4 55.4 29.27 55.4 603 351 527 -2.50 0.03 0.17 0.000
1:11am 55 0 0 42 95 72.4 55.5 29.27 55.5 606 351 537 -2.36 0.03 0.17 0.000
1:12am 55 0 1 42 95 72.4 55.4 29.27 55.4 607 351 531 -2.42 0.03 0.17 0.000
1:13am 234 3 3 42 95 72.4 55.4 29.27 55.4 607 351 531 -2.38 0.03 0.17 0.000
1:14am 239 0 3 42 95 72.4 55.3 29.27 55.3 607 351 524 -2.44 0.03 0.17 0.000
1:15am 239 0 3 42 95 72.4 55.2 29.27 55.2 608 351 519 -2.50 0.03 0.17 0.000
1:16am 239 1 2 42 95 72.4 55.2 29.27 55.2 604 351 514 -2.46 0.03 0.17 0.000
1:17am 239 1 2 42 95 72.4 55.2 29.28 55.2 600 351 510 -2.42 0.04 0.18 0.000
1:18am 239 1 2 42 95 72.4 55.1 29.28 55.1 599 351 502 -2.48 0.04 0.18 0.000
1:19am 239 0 2 42 95 72.4 55.1 29.28 55.1 598 351 501 -2.43 0.04 0.18 0.000
1:20am 239 0 2 42 95 72.4 55.0 29.28 55.0 595 351 490 -2.49 0.04 0.18 0.000
1:21am 239 2 2 42 95 72.4 55.0 29.29 55.0 588 351 482 -2.45 0.04 0.18 0.000
1:22am 239 0 2 42 95 72.4 55.0 29.29 55.0 588 351 482 -2.41 0.04 0.18 0.000
1:23am 239 0 2 42 95 72.4 55.0 29.28 55.0 594 351 489 -2.37 0.04 0.18 0.000
1:24am 239 2 2 42 95 72.4 54.9 29.28 54.9 599 350 489 -2.43 0.04 0.18 0.000
1:25am 347 3 3 42 95 72.4 54.9 29.28 54.9 600 350 490 -2.39 0.04 0.18 0.000
1:26am 347 0 3 42 95 72.4 54.9 29.28 54.9 600 350 490 -2.35 0.05 0.19 0.070
1:27am 347 0 3 42 96 72.6 54.8 29.28 54.8 600 279 483 -2.41 0.05 0.19 0.070
1:28am 347 0 3 42 96 72.6 54.8 29.28 54.8 601 279 485 -2.37 0.05 0.19 0.070
1:29am 347 0 3 42 96 72.6 54.9 29.28 54.9 601 279 491 -2.23 0.05 0.19 0.070
1:30am 347 0 3 42 96 72.6 54.9 29.28 54.9 601 279 491 -2.20 0.05 0.19 0.070
1:31am 347 0 0 42 96 72.6 54.8 29.28 54.8 601 279 485 -2.26 0.05 0.19 0.070
1:32am 347 0 0 42 96 72.6 54.8 29.27 54.8 602 279 486 -2.22 0.05 0.19 0.070
1:33am 347 0 0 42 96 72.6 54.8 29.27 54.8 602 279 486 -2.19 0.05 0.19 0.070
1:34am 347 0 0 42 96 72.6 54.8 29.28 54.8 601 279 485 -2.15 0.05 0.19 0.070
1:35am 347 0 0 42 96 72.6 54.8 29.28 54.8 601 279 485 -2.12 0.05 0.19 0.060
1:36am 347 0 0 42 96 72.6 54.8 29.28 54.8 599 279 482 -2.08 0.05 0.19 0.060
1:37am 347 0 0 42 96 72.6 54.8 29.28 54.8 599 279 482 -2.04 0.05 0.19 0.050
1:38am 347 0 0 42 96 72.6 54.7 29.28 54.7 598 279 475 -2.11 0.05 0.19 0.050
1:39am 347 0 0 42 96 72.6 54.7 29.28 54.7 599 279 476 -2.07 0.05 0.19 0.040
1:40am 347 0 0 42 96 72.6 54.7 29.28 54.7 600 279 477 -2.04 0.05 0.19 0.040
1:41am 347 0 0 42 96 72.6 54.7 29.28 54.7 601 279 478 -2.01 0.05 0.19 0.040
1:42am 347 3 3 42 96 72.6 54.7 29.27 54.7 603 279 480 -1.97 0.05 0.19 0.040
1:43am 335 1 3 42 96 72.6 54.6 29.27 54.6 605 279 476 -2.04 0.05 0.19 0.000
1:44am 12 5 5 42 96 72.6 54.6 29.27 53.6 609 279 482 -2.00 0.05 0.19 0.000
1:45am 13 1 5 42 96 72.6 54.6 29.27 54.6 610 279 483 -1.97 0.05 0.19 0.000
1:46am 13 1 2 42 95 72.6 54.5 29.27 54.5 607 350 472 -2.04 0.05 0.19 0.000
1:47am 13 2 2 42 95 72.6 54.5 29.27 54.5 602 350 466 -2.01 0.05 0.19 0.000
1:48am 288 1 3 42 95 72.6 54.4 29.28 54.4 601 350 458 -2.07 0.05 0.19 0.000
1:49am 78 3 3 42 96 72.6 54.4 29.27 54.4 602 278 459 -2.04 0.05 0.19 0.000
1:50am 352 2 4 42 95 72.4 54.4 29.27 54.4 604 350 462 -2.00 0.05 0.19 0.000
1:51am 352 0 2 42 95 72.4 54.3 29.28 54.3 600 350 450 -2.07 0.05 0.19 0.000
1:52am 352 2 2 42 96 72.4 54.3 29.28 54.3 598 278 448 -2.04 0.05 0.19 0.000
1:53am 352 2 3 42 96 72.4 54.3 29.28 54.3 596 278 445 -2.00 0.05 0.19 0.000
1:54am 352 2 3 42 96 72.4 54.3 29.28 54.3 596 278 445 -1.97 0.05 0.19 0.000
1:55am 352 0 3 42 96 72.4 54.2 29.28 54.2 595 278 437 -2.04 0.06 0.20 0.000
1:56am 352 0 0 42 96 72.4 54.2 29.28 54.2 593 278 435 -2.00 0.06 0.20 0.000
1:57am 352 0 0 42 96 72.4 54.2 29.29 54.2 591 278 432 -1.97 0.06 0.20 0.000
1:58am 352 1 1 42 96 72.4 54.2 29.28 54.2 593 278 435 -1.94 0.06 0.20 0.000
1:59am 352 0 1 42 96 72.4 54.2 29.28 54.2 596 278 439 -1.90 0.06 0.20 0.000
2:00am 352 0 1 42 96 72.4 54.2 29.28 54.2 598 278 441 -1.87 0.06 0.20 0.000
2:01am 352 2 2 42 96 72.4 54.2 29.28 54.2 599 278 443 -1.84 0.06 0.20 0.000
2:02am 352 1 2 42 96 72.4 54.2 29.28 54.2 598 278 441 -1.81 0.06 0.20 0.000
2:03am 352 0 2 42 96 72.4 54.1 29.28 54.1 599 278 436 -1.88 0.06 0.20 0.000
2:04am 352 0 2 42 96 72.4 54.1 29.28 54.1 598 278 435 -1.85 0.06 0.20 0.000
2:05am 352 0 2 42 96 72.4 54.1 29.28 54.1 599 278 436 -1.82 0.06 0.20 0.000
2:06am 352 0 0 42 96 72.4 54.1 29.28 54.1 601 278 438 -1.79 0.06 0.20 0.000
2:07am 352 0 0 42 96 72.4 54.1 29.27 54.1 604 278 442 -1.76 0.06 0.20 0.000
2:08am 352 0 0 42 96 72.4 54.0 29.27 54.0 603 278 434 -1.83 0.06 0.20 0.000
2:09am 352 0 0 42 96 72.4 54.0 29.28 54.0 601 278 432 -1.80 0.06 0.20 0.000
2:10am 352 0 0 42 96 72.4 54.0 29.28 54.0 600 278 430 -1.77 0.06 0.20 0.000
2:11am 352 0 0 42 96 72.4 54.0 29.28 54.0 598 278 428 -1.74 0.06 0.20 0.000
2:12am 352 0 0 42 96 72.4 54.0 29.28 54.0 595 278 424 -1.71 0.06 0.20 0.000
2:13am 352 0 0 42 96 72.4 54.0 29.29 54.0 591 278 419 -1.68 0.06 0.20 0.000
2:14am 356 0 0 42 96 72.4 53.9 29.29 53.9 591 278 412 -1.75 0.06 0.20 0.000
2:15am 79 2 3 42 96 72.4 53.9 29.28 53.9 594 278 416 -1.73 0.06 0.20 0.000
2:16am 70 2 2 42 96 72.4 53.9 29.28 53.9 596 278 419 -1.70 0.06 0.20 0.000
2:17am 70 2 3 42 96 72.4 53.9 29.28 53.9 596 278 419 -1.67 0.06 0.20 0.000
2:18am 70 2 3 42 96 72.4 53.8 29.28 53.8 597 278 414 -1.74 0.06 0.20 0.000
2:19am 68 1 3 42 96 72.4 53.9 29.28 53.9 598 278 422 -1.61 0.06 0.20 0.000
2:20am 68 2 3 42 96 72.4 53.8 29.28 53.8 598 278 415 -1.69 0.06 0.20 0.000
2:21am 58 3 3 42 96 72.4 53.7 29.28 53.7 598 277 408 -1.76 0.06 0.20 0.000
2:22am 87 1 4 42 96 72.4 53.7 29.28 53.7 597 277 407 -1.73 0.06 0.20 0.000
2:23am 87 1 4 42 96 72.4 53.7 29.28 53.7 596 277 405 -1.70 0.06 0.20 0.000
2:24am 87 2 4 42 96 72.4 53.7 29.28 53.7 594 277 403 -1.67 0.06 0.20 0.000
2:25am 87 0 4 42 96 72.4 53.7 29.29 53.7 591 277 399 -1.64 0.07 0.21 0.000
2:26am 37 2 3 42 96 72.6 53.6 29.29 53.6 587 277 388 -1.72 0.07 0.21 0.000
2:27am 36 5 5 42 96 72.6 53.6 29.29 52.4 590 277 391 -1.69 0.07 0.21 0.000
2:28am 79 5 5 42 96 72.6 53.7 29.28 52.6 595 277 404 -1.56 0.07 0.21 0.000
2:29am 79 1 5 42 96 72.6 53.6 29.28 53.6 597 277 400 -1.64 0.07 0.21 0.000
2:30am 76 2 5 42 96 72.6 53.6 29.28 53.6 598 277 402 -1.61 0.07 0.21 0.000
2:31am 76 1 2 42 96 72.6 53.5 29.28 53.5 597 277 394 -1.68 0.07 0.21 0.000
2:32am 360 3 5 42 96 72.6 53.5 29.28 53.5 596 277 393 -1.65 0.07 0.21 0.000
2:33am 360 1 5 42 96 72.6 53.4 29.28 53.4 594 277 383 -1.72 0.07 0.21 0.000
2:34am 360 2 5 44 96 72.4 53.3 29.28 53.3 596 277 379 -1.79 0.07 0.21 0.000
2:35am 360 1 5 44 95 72.4 53.3 29.28 53.3 597 348 381 -1.77 0.07 0.21 0.000
2:36am 360 1 2 42 96 72.6 53.2 29.28 53.2 597 277 374 -1.84 0.07 0.21 0.000
2:37am 360 0 2 42 96 72.6 53.2 29.28 53.2 598 277 375 -1.81 0.07 0.21 0.000
2:38am 347 2 3 42 96 72.6 53.1 29.28 53.1 598 277 368 -1.88 0.07 0.21 0.000
2:39am 347 3 7 42 95 72.6 53.1 29.28 53.1 598 348 368 -1.84 0.07 0.21 0.000
2:40am 13 3 7 42 95 72.6 53.0 29.28 53.0 598 348 362 -1.91 0.07 0.21 0.000
2:41am 30 2 3 42 95 72.6 52.9 29.28 52.9 598 347 355 -1.98 0.07 0.21 0.000
2:42am 19 0 3 42 95 72.6 52.8 29.28 52.8 598 347 348 -2.05 0.07 0.21 0.000
2:43am 81 2 3 42 96 72.6 52.8 29.28 52.8 598 276 348 -2.01 0.07 0.21 0.000
2:44am 360 2 7 42 96 72.6 52.8 29.28 52.8 598 276 348 -1.98 0.07 0.21 0.000
2:45am 360 2 7 42 96 72.6 52.7 29.28 52.7 598 276 342 -2.04 0.07 0.21 0.000
2:46am 6 2 3 42 95 72.6 52.7 29.28 52.7 600 347 344 -2.01 0.07 0.21 0.000
2:47am 77 1 3 42 95 72.6 52.6 29.28 52.6 599 347 336 -2.08 0.07 0.21 0.000
2:48am 29 5 5 42 95 72.6 52.6 29.28 51.3 601 347 339 -2.04 0.07 0.21 0.000
2:49am 4 2 5 42 95 72.6 52.4 29.27 52.4 606 347 331 -2.21 0.07 0.21 0.000
2:50am 31 1 5 42 95 72.6 52.4 29.27 52.4 606 347 331 -2.17 0.07 0.21 0.000
2:51am 31 1 2 42 96 72.6 52.4 29.27 52.4 606 276 331 -2.13 0.07 0.21 0.000
2:52am 31 2 2 42 96 72.6 52.3 29.27 52.3 602 276 320 -2.20 0.07 0.21 0.000
2:53am 30 2 2 42 96 72.6 52.3 29.28 52.3 599 276 316 -2.16 0.07 0.21 0.000
2:54am 30 0 2 44 96 72.6 52.3 29.28 52.3 598 276 315 -2.13 0.07 0.21 0.000
2:55am 30 0 2 42 96 72.6 52.3 29.28 52.3 597 276 314 -2.09 0.08 0.22 0.000
2:56am 30 1 1 42 96 72.6 52.3 29.28 52.3 598 276 315 -2.06 0.08 0.22 0.000
2:57am 359 2 4 42 96 72.6 52.2 29.28 52.2 597 276 307 -2.12 0.08 0.22 0.000
2:58am 359 1 4 42 96 72.6 52.2 29.28 52.2 597 276 307 -2.09 0.08 0.22 0.000
2:59am 359 1 4 42 96 72.6 52.2 29.28 52.2 597 276 307 -2.05 0.08 0.22 0.000
3:00am 359 1 4 42 96 72.6 52.2 29.28 52.2 597 276 307 -2.02 0.08 0.22 0.000
3:01am 359 0 1 42 96 72.6 52.2 29.28 52.2 598 276 309 -1.99 0.08 0.22 0.000
3:02am 359 1 3 42 96 72.6 52.2 29.28 52.2 598 276 309 -1.95 0.08 0.22 0.000
3:03am 359 2 3 42 96 72.6 52.1 29.28 52.1 598 276 302 -2.02 0.08 0.22 0.000
3:04am 359 1 3 42 96 72.6 52.1 29.28 52.1 597 276 301 -1.98 0.08 0.22 0.000
3:05am 359 1 3 42 96 72.6 52.0 29.28 52.0 596 275 293 -2.05 0.08 0.22 0.000
3:06am 348 3 3 42 96 72.8 52.0 29.28 51.9 597 275 294 -2.02 0.08 0.22 0.000
3:07am 348 1 3 42 96 72.8 52.0 29.28 52.0 596 275 293 -1.99 0.08 0.22 0.000
3:08am 348 1 3 42 96 72.8 52.0 29.28 52.0 597 275 294 -1.95 0.08 0.22 0.000
3:09am 348 0 3 42 96 72.8 51.9 29.28 51.9 598 275 289 -2.02 0.08 0.22 0.000
3:10am 348 0 3 42 96 72.8 51.9 29.28 51.9 598 275 289 -1.99 0.08 0.22 0.000
3:11am 348 0 1 42 96 72.8 51.9 29.28 51.9 599 275 290 -1.95 0.08 0.22 0.000
3:12am 348 0 1 42 96 72.8 51.9 29.28 51.9 599 275 290 -1.92 0.08 0.22 0.000
3:13am 348 2 2 42 96 72.8 51.9 29.28 51.9 599 275 290 -1.89 0.08 0.22 0.000
3:14am 348 1 2 42 96 72.8 51.9 29.28 51.9 599 275 290 -1.86 0.09 0.23 0.000
3:15am 348 2 2 42 96 72.8 51.9 29.28 51.9 599 275 290 -1.83 0.09 0.23 0.000
3:16am 348 1 2 42 96 72.8 51.8 29.27 51.8 602 275 286 -1.90 0.09 0.23 0.000
3:17am 348 1 2 42 96 72.8 51.8 29.27 51.8 603 275 288 -1.87 0.09 0.23 0.000
3:18am 348 0 2 42 96 72.8 51.8 29.27 51.8 602 275 286 -1.83 0.09 0.23 0.000
3:19am 348 0 2 42 96 72.8 51.8 29.27 51.8 602 275 286 -1.80 0.09 0.23 0.000
3:20am 75 2 5 42 96 72.8 51.7 29.27 51.7 604 275 282 -1.87 0.09 0.23 0.000
3:21am 74 0 2 42 96 72.8 51.7 29.27 51.7 607 275 286 -1.84 0.09 0.23 0.000
3:22am 74 0 2 42 96 72.8 51.6 29.27 51.6 608 275 280 -1.91 0.09 0.23 0.000
3:23am 74 0 2 42 96 72.8 51.6 29.27 51.6 607 275 279 -1.88 0.09 0.23 0.000
3:24am 74 0 2 42 96 72.8 51.6 29.27 51.6 607 275 279 -1.85 0.09 0.23 0.000
3:25am 74 0 2 42 96 72.8 51.5 29.27 51.5 608 275 273 -1.91 0.10 0.24 0.050
3:26am 74 0 0 42 96 72.8 51.5 29.27 51.5 608 275 273 -1.88 0.10 0.24 0.050
3:27am 74 1 2 42 96 72.8 51.5 29.27 51.5 609 275 276 -1.85 0.10 0.24 0.050
3:28am 74 3 3 42 96 72.8 51.5 29.27 51.4 608 275 273 -1.82 0.10 0.24 0.050
3:29am 41 2 6 42 96 72.8 51.5 29.27 51.5 606 275 271 -1.79 0.10 0.24 0.050
3:30am 32 3 6 42 96 72.8 51.4 29.27 51.3 606 275 264 -1.86 0.10 0.24 0.050
3:31am 32 1 3 42 96 72.8 51.4 29.27 51.4 606 275 264 -1.83 0.10 0.24 0.050
3:32am 32 0 3 42 96 72.8 51.4 29.27 51.4 608 275 267 -1.80 0.10 0.24 0.050
3:33am 32 0 3 42 96 72.8 51.4 29.27 51.4 609 275 269 -1.77 0.10 0.24 0.050
3:34am 32 0 3 42 96 72.8 51.3 29.27 51.3 609 275 262 -1.84 0.10 0.24 0.050
3:35am 32 2 3 42 96 72.8 51.3 29.27 51.3 607 275 259 -1.81 0.10 0.24 0.050
3:36am 32 0 2 42 96 72.8 51.3 29.27 51.3 602 275 253 -1.78 0.10 0.24 0.050
3:37am 32 0 2 42 96 72.8 51.3 29.27 51.3 602 275 253 -1.75 0.10 0.24 0.050
3:38am 32 0 2 42 96 72.8 51.3 29.28 51.3 601 275 252 -1.72 0.11 0.25 0.040
3:39am 32 0 2 42 96 73.0 51.3 29.27 51.3 602 275 253 -1.69 0.11 0.25 0.040
3:40am 32 0 2 42 96 73.0 51.3 29.27 51.3 604 275 255 -1.67 0.11 0.25 0.040
3:41am 32 1 1 42 96 73.0 51.3 29.27 51.3 605 275 257 -1.64 0.11 0.25 0.040
3:42am 32 2 2 42 96 73.0 51.3 29.27 51.3 606 275 258 -1.61 0.11 0.25 0.040
3:43am 32 2 2 42 97 73.0 51.3 29.27 51.3 609 205 261 -1.58 0.11 0.25 0.040
3:44am 32 1 2 42 97 73.0 51.2 29.26 51.2 611 205 258 -1.66 0.11 0.25 0.040
3:45am 32 1 2 42 97 73.0 51.3 29.26 51.3 612 205 266 -1.53 0.11 0.25 0.040
3:46am 32 1 2 42 97 73.0 51.2 29.26 51.2 613 205 260 -1.60 0.11 0.25 0.040
3:47am 32 1 2 42 97 73.0 51.2 29.26 51.2 614 205 261 -1.58 0.11 0.25 0.040
3:48am 32 0 2 42 97 73.0 51.2 29.26 51.2 614 205 261 -1.55 0.11 0.25 0.040
3:49am 32 1 2 42 96 73.0 51.2 29.26 51.2 615 275 262 -1.53 0.11 0.25 0.040
3:50am 32 0 2 42 96 73.0 51.2 29.26 51.2 614 275 261 -1.50 0.11 0.25 0.040
3:51am 32 0 0 42 96 73.0 51.2 29.26 51.2 613 275 260 -1.48 0.11 0.25 0.040
3:52am 32 0 0 42 96 73.0 51.2 29.26 51.2 612 275 259 -1.45 0.11 0.25 0.040
3:53am 32 0 0 42 97 73.0 51.2 29.26 51.2 612 205 259 -1.43 0.11 0.25 0.040
3:54am 32 0 0 42 97 73.0 51.2 29.26 51.2 612 205 259 -1.40 0.11 0.25 0.040
3:55am 32 0 0 42 97 73.0 51.2 29.26 51.2 612 205 259 -1.38 0.11 0.25 0.000
3:56am 32 0 0 42 97 73.0 51.2 29.26 51.2 612 205 259 -1.36 0.11 0.25 0.000
3:57am 32 0 0 42 97 73.0 51.2 29.26 51.2 612 205 259 -1.33 0.11 0.25 0.000
3:58am 32 0 0 42 97 73.0 51.2 29.26 51.2 612 205 259 -1.31 0.11 0.25 0.000
3:59am 32 0 0 42 97 73.0 51.2 29.26 51.2 612 205 259 -1.29 0.11 0.25 0.000
4:00am 32 0 0 42 97 73.0 51.2 29.26 51.2 613 205 260 -1.27 0.11 0.25 0.000
4:01am 32 0 0 42 97 73.0 51.2 29.26 51.2 612 205 259 -1.25 0.11 0.25 0.000
4:02am 32 0 0 42 97 73.0 51.2 29.26 51.2 612 205 259 -1.23 0.11 0.25 0.000
4:03am 32 0 0 42 97 73.0 51.2 29.26 51.2 612 205 259 -1.21 0.11 0.25 0.000
4:04am 32 0 0 42 97 73.0 51.2 29.26 51.2 611 205 258 -1.19 0.11 0.25 0.000
4:05am 32 0 0 42 97 73.0 51.2 29.26 51.2 611 205 258 -1.17 0.11 0.25 0.000
4:06am 32 0 0 42 97 73.0 51.2 29.26 51.2 611 205 258 -1.15 0.11 0.25 0.000
4:07am 32 0 0 42 97 73.0 51.1 29.26 51.1 611 205 251 -1.23 0.11 0.25 0.000
4:08am 32 0 0 42 97 73.0 51.2 29.26 51.2 611 205 258 -1.11 0.11 0.25 0.000
4:09am 32 0 0 42 97 73.0 51.1 29.26 51.1 611 205 251 -1.19 0.11 0.25 0.000
4:10am 32 0 0 42 97 73.0 51.2 29.26 51.2 611 205 258 -1.07 0.11 0.25 0.000
4:11am 32 0 0 42 97 73.0 51.2 29.26 51.2 611 205 258 -1.05 0.11 0.25 0.000
4:12am 32 0 0 42 97 73.0 51.1 29.26 51.1 611 205 251 -1.13 0.11 0.25 0.000
4:13am 32 0 0 42 97 73.0 51.1 29.26 51.1 611 205 251 -1.12 0.11 0.25 0.000
4:14am 32 0 0 42 97 73.0 51.1 29.26 51.1 611 205 251 -1.10 0.11 0.25 0.000
4:15am 32 0 0 42 97 73.1 51.2 29.26 51.2 611 205 258 -0.98 0.11 0.25 0.000
4:16am 32 0 0 42 97 73.0 51.1 29.27 51.1 610 205 250 -1.06 0.11 0.25 0.000
4:17am 32 0 0 42 97 73.0 51.2 29.27 51.2 609 205 256 -0.94 0.11 0.25 0.000
4:18am 32 0 0 42 97 73.0 51.2 29.27 51.2 609 205 256 -0.93 0.11 0.25 0.000
4:19am 32 0 0 42 97 73.0 51.1 29.27 51.1 608 205 247 -1.01 0.11 0.25 0.000
4:20am 32 0 0 42 97 73.0 51.1 29.27 51.1 608 205 247 -1.00 0.11 0.25 0.000
4:21am 32 0 0 42 97 73.0 51.1 29.27 51.1 607 205 245 -0.98 0.11 0.25 0.000
4:22am 32 0 0 42 97 73.0 51.2 29.27 51.2 605 205 250 -0.87 0.11 0.25 0.000
4:23am 323 0 0 42 97 73.0 51.2 29.27 51.2 606 205 251 -0.85 0.11 0.25 0.000
4:24am 323 0 0 42 97 73.0 51.1 29.27 51.1 607 205 245 -0.94 0.11 0.25 0.000
4:25am 323 0 0 42 97 73.1 51.1 29.27 51.1 607 205 245 -0.92 0.11 0.25 0.000
4:26am 323 0 0 42 97 73.1 51.2 29.27 51.2 606 205 251 -0.81 0.11 0.25 0.000
4:27am 323 0 0 42 97 73.1 51.2 29.27 51.2 606 205 251 -0.79 0.11 0.25 0.000
4:28am 323 0 0 42 97 73.1 51.2 29.27 51.2 608 205 253 -0.78 0.11 0.25 0.000
4:29am 323 0 0 42 97 73.1 51.2 29.27 51.2 609 205 254 -0.77 0.11 0.25 0.000
4:30am 329 0 0 42 97 73.1 51.2 29.27 51.2 607 205 252 -0.75 0.11 0.25 0.000
4:31am 329 0 0 43 97 73.1 51.1 29.27 51.1 607 205 245 -0.84 0.11 0.25 0.000
4:32am 329 0 0 42 97 73.1 51.2 29.27 51.2 607 205 252 -0.73 0.11 0.25 0.000
4:33am 329 0 0 42 97 73.1 51.2 29.27 51.2 607 205 252 -0.72 0.11 0.25 0.000
4:34am 329 0 0 42 97 73.1 51.2 29.27 51.2 607 205 252 -0.70 0.11 0.25 0.000
4:35am 329 0 0 42 97 73.1 51.2 29.27 51.2 607 205 252 -0.69 0.11 0.25 0.000
4:36am 329 0 0 42 97 73.1 51.2 29.27 51.2 607 205 252 -0.68 0.11 0.25 0.000
4:37am 329 0 0 42 97 73.1 51.2 29.27 51.2 607 205 252 -0.67 0.11 0.25 0.000
4:38am 329 0 0 42 97 73.1 51.2 29.27 51.2 605 205 250 -0.66 0.11 0.25 0.000
4:39am 329 0 0 42 97 73.1 51.2 29.27 51.2 605 205 250 -0.65 0.11 0.25 0.000
4:40am 329 0 0 42 97 73.1 51.2 29.27 51.2 604 205 249 -0.64 0.11 0.25 0.000
4:41am 329 0 0 42 97 73.1 51.2 29.27 51.2 603 205 248 -0.63 0.11 0.25 0.000
4:42am 329 0 0 44 97 73.1 51.2 29.28 51.2 601 205 245 -0.62 0.11 0.25 0.000
4:43am 329 0 0 42 97 73.1 51.2 29.28 51.2 600 205 244 -0.61 0.11 0.25 0.000
4:44am 329 0 0 42 97 73.1 51.2 29.28 51.2 600 205 244 -0.60 0.11 0.25 0.000
4:45am 329 0 0 42 97 73.1 51.2 29.28 51.2 601 205 245 -0.59 0.11 0.25 0.000
4:46am 329 0 0 42 97 73.1 51.2 29.28 51.2 600 205 244 -0.58 0.11 0.25 0.000
4:47am 329 0 0 42 97 73.1 51.2 29.28 51.2 600 205 244 -0.57 0.11 0.25 0.000
4:48am 329 0 0 42 97 73.1 51.2 29.28 51.2 598 205 242 -0.56 0.11 0.25 0.000
4:49am 329 0 0 42 97 73.1 51.3 29.28 51.3 598 205 249 -0.45 0.11 0.25 0.000
4:50am 329 0 0 42 97 73.1 51.3 29.28 51.3 597 205 247 -0.45 0.11 0.25 0.000
4:51am 329 0 0 42 97 73.1 51.3 29.28 51.3 596 205 246 -0.44 0.11 0.25 0.000
4:52am 329 0 0 42 97 73.1 51.3 29.28 51.3 596 205 246 -0.43 0.11 0.25 0.000
4:53am 329 0 0 42 97 73.1 51.4 29.28 51.4 596 205 253 -0.32 0.11 0.25 0.000
4:54am 329 0 0 42 97 73.1 51.4 29.28 51.4 596 205 253 -0.32 0.11 0.25 0.000
4:55am 329 0 0 42 97 73.1 51.3 29.28 51.3 596 205 246 -0.41 0.11 0.25 0.000
4:56am 329 0 0 42 97 73.1 51.3 29.28 51.3 596 205 245 -0.40 0.11 0.25 0.000
4:57am 329 0 0 42 97 73.1 51.3 29.28 51.3 595 205 244 -0.40 0.11 0.25 0.000
4:58am 329 0 0 42 97 73.1 51.3 29.28 51.3 594 205 243 -0.39 0.11 0.25 0.000
4:59am 329 0 0 42 97 73.1 51.3 29.28 51.3 595 205 244 -0.39 0.11 0.25 0.000
5:00am 329 0 0 42 97 73.1 51.3 29.28 51.3 596 205 245 -0.38 0.11 0.25 0.000
5:01am 329 0 0 42 97 73.1 51.3 29.28 51.3 596 205 245 -0.37 0.11 0.25 0.000
5:02am 329 0 0 42 97 73.1 51.3 29.28 51.3 596 205 246 -0.37 0.11 0.25 0.000
5:03am 329 0 0 42 97 73.1 51.4 29.28 51.4 596 205 253 -0.26 0.11 0.25 0.000
5:04am 329 0 0 42 97 73.1 51.4 29.28 51.4 595 205 251 -0.26 0.11 0.25 0.000
5:05am 329 0 0 42 97 73.1 51.4 29.28 51.4 593 205 248 -0.25 0.11 0.25 0.000
5:06am 329 0 0 42 97 73.1 51.4 29.29 51.4 591 205 246 -0.25 0.11 0.25 0.000
5:07am 329 0 0 42 97 73.1 51.4 29.29 51.4 590 205 245 -0.24 0.11 0.25 0.000
5:08am 329 0 0 42 97 73.1 51.4 29.29 51.4 589 205 244 -0.24 0.11 0.25 0.000
5:09am 329 0 0 42 97 73.1 51.4 29.29 51.4 586 205 240 -0.24 0.11 0.25 0.000
5:10am 329 0 0 42 97 73.1 51.4 29.29 51.4 585 205 239 -0.23 0.11 0.25 0.000
5:11am 329 0 0 42 97 73.1 51.4 29.29 51.4 584 205 238 -0.23 0.11 0.25 0.000
5:12am 329 0 0 42 97 73.1 51.4 29.29 51.4 584 205 237 -0.22 0.11 0.25 0.000
5:13am 329 0 0 42 97 73.3 51.4 29.29 51.4 584 205 237 -0.22 0.11 0.25 0.000
5:14am 329 0 0 42 97 73.3 51.4 29.29 51.4 584 205 237 -0.22 0.11 0.25 0.000
5:15am 329 0 0 42 97 73.3 51.4 29.29 51.4 584 205 237 -0.21 0.11 0.25 0.000
5:16am 329 0 0 42 97 73.3 51.4 29.29 51.4 584 205 237 -0.21 0.11 0.25 0.000
5:17am 329 0 0 42 97 73.3 51.4 29.29 51.4 584 205 237 -0.21 0.11 0.25 0.000
5:18am 329 0 0 42 97 73.3 51.3 29.29 51.3 584 205 231 -0.30 0.11 0.25 0.000
5:19am 329 0 0 42 97 73.3 51.4 29.29 51.4 584 205 238 -0.20 0.11 0.25 0.000
5:20am 329 0 0 42 97 73.3 51.4 29.29 51.4 584 205 237 -0.19 0.11 0.25 0.000
5:21am 329 0 0 42 97 73.3 51.3 29.30 51.3 583 205 229 -0.29 0.11 0.25 0.000
5:22am 329 0 0 42 97 73.3 51.3 29.30 51.3 583 205 229 -0.29 0.11 0.25 0.000
5:23am 329 0 0 42 97 73.3 51.3 29.29 51.3 584 205 230 -0.28 0.11 0.25 0.000
5:24am 329 0 0 42 97 73.3 51.3 29.29 51.3 584 205 230 -0.28 0.11 0.25 0.000
5:25am 329 0 0 42 97 73.3 51.4 29.29 51.4 584 205 237 -0.17 0.11 0.25 0.000
5:26am 329 0 0 42 97 73.3 51.3 29.30 51.3 583 205 229 -0.27 0.11 0.25 0.000
5:27am 329 0 0 42 97 73.3 51.3 29.30 51.3 582 205 228 -0.26 0.11 0.25 0.000
5:28am 329 0 0 42 97 73.3 51.3 29.30 51.3 582 205 228 -0.26 0.11 0.25 0.000
5:29am 329 0 0 42 97 73.3 51.4 29.30 51.4 582 205 235 -0.16 0.11 0.25 0.000
5:30am 329 0 0 42 97 73.3 51.3 29.30 51.3 582 205 228 -0.25 0.11 0.25 0.000
5:31am 329 0 0 42 97 73.3 51.3 29.30 51.3 582 205 228 -0.25 0.11 0.25 0.000
5:32am 329 0 0 42 97 73.3 51.3 29.30 51.3 581 205 227 -0.24 0.11 0.25 0.000
5:33am 329 0 0 42 97 73.3 51.3 29.30 51.3 582 205 228 -0.24 0.11 0.25 0.000
5:34am 329 0 0 42 97 73.3 51.3 29.30 51.3 582 205 228 -0.24 0.11 0.25 0.000
5:35am 329 0 0 42 97 73.3 51.3 29.30 51.3 582 205 228 -0.23 0.11 0.25 0.000
5:36am 329 0 0 42 97 73.3 51.3 29.30 51.3 582 205 228 -0.23 0.11 0.25 0.000
5:37am 329 0 0 42 97 73.3 51.3 29.30 51.3 583 205 229 -0.22 0.11 0.25 0.000
5:38am 329 0 0 42 97 73.3 51.4 29.30 51.4 583 205 236 -0.12 0.11 0.25 0.000
5:39am 329 0 0 42 97 73.3 51.4 29.30 51.4 583 205 236 -0.12 0.11 0.25 0.000
5:40am 329 0 0 42 97 73.3 51.3 29.30 51.3 582 205 228 -0.21 0.11 0.25 0.000
5:41am 329 0 0 42 97 73.3 51.3 29.30 51.3 582 205 228 -0.21 0.11 0.25 0.000
5:42am 329 0 0 42 97 73.3 51.3 29.30 51.3 582 205 228 -0.21 0.11 0.25 0.000
5:43am 329 0 0 42 97 73.3 51.3 29.30 51.3 582 205 228 -0.21 0.11 0.25 0.000
5:44am 329 0 0 42 97 73.3 51.3 29.30 51.3 583 205 229 -0.20 0.11 0.25 0.000
5:45am 329 0 0 42 98 73.3 51.4 29.30 51.4 583 136 236 -0.10 0.11 0.25 0.000
5:46am 329 0 0 43 98 73.3 51.3 29.30 51.3 582 136 228 -0.20 0.11 0.25 0.000
5:47am 329 0 0 42 98 73.3 51.4 29.30 51.4 582 136 235 -0.10 0.11 0.25 0.000
5:48am 329 0 0 42 98 73.3 51.4 29.30 51.4 582 136 235 -0.09 0.11 0.25 0.000
5:49am 329 0 0 42 98 73.3 51.3 29.30 51.3 582 136 228 -0.19 0.11 0.25 0.000
5:50am 329 0 0 42 98 73.3 51.4 29.30 51.4 583 136 236 -0.09 0.11 0.25 0.000
5:51am 329 0 0 43 98 73.3 51.4 29.30 51.4 583 136 236 -0.09 0.11 0.25 0.000
5:52am 329 0 0 42 98 73.3 51.4 29.30 51.4 583 136 236 -0.09 0.11 0.25 0.000
5:53am 329 0 0 42 98 73.3 51.4 29.30 51.4 583 136 236 -0.09 0.11 0.25 0.000
5:54am 329 0 0 42 98 73.3 51.4 29.30 51.4 583 136 236 -0.09 0.11 0.25 0.000
5:55am 329 0 0 42 98 73.3 51.4 29.30 51.4 583 136 236 -0.08 0.11 0.25 0.000
5:56am 329 0 0 42 98 73.3 51.4 29.30 51.4 583 136 236 -0.08 0.11 0.25 0.000
5:57am 329 0 0 42 98 73.3 51.4 29.29 51.4 584 136 237 -0.08 0.11 0.25 0.000
5:58am 329 0 0 42 98 73.3 51.5 29.30 51.5 583 136 242 0.02 0.11 0.25 0.000
5:59am 329 0 0 42 98 73.3 51.4 29.30 51.4 582 136 235 -0.08 0.11 0.25 0.000
6:00am 329 0 0 42 97 73.3 51.4 29.30 51.4 582 205 235 -0.08 0.11 0.25 0.000
6:01am 329 0 0 42 98 73.3 51.3 29.30 51.3 583 136 229 -0.18 0.11 0.25 0.000
6:02am 329 0 0 42 98 73.3 51.4 29.30 51.4 583 136 236 -0.08 0.11 0.25 0.000
6:03am 329 0 0 42 97 73.3 51.4 29.29 51.4 584 205 237 -0.07 0.11 0.25 0.000
6:04am 329 0 0 42 97 73.3 51.3 29.29 51.3 584 205 230 -0.17 0.11 0.25 0.000
6:05am 329 0 0 42 97 73.3 51.3 29.30 51.3 583 205 229 -0.17 0.11 0.25 0.000
6:06am 329 0 0 42 97 73.5 51.3 29.30 51.3 582 205 228 -0.17 0.11 0.25 0.000
6:07am 329 0 0 42 97 73.5 51.3 29.30 51.3 583 205 229 -0.16 0.11 0.25 0.000
6:08am 329 0 0 42 97 73.5 51.2 29.30 51.2 583 205 222 -0.26 0.11 0.25 0.000
6:09am 329 0 0 42 97 73.5 51.1 29.30 51.1 582 205 215 -0.35 0.11 0.25 0.000
6:10am 329 0 0 42 97 73.5 51.0 29.30 51.0 582 205 208 -0.45 0.11 0.25 0.000
6:11am 329 0 0 42 97 73.5 51.0 29.30 51.0 582 205 208 -0.44 0.11 0.25 0.000
6:12am 329 0 0 42 97 73.5 50.9 29.30 50.9 582 205 201 -0.53 0.11 0.25 0.000
6:13am 329 0 0 42 97 73.5 50.9 29.30 50.9 582 205 201 -0.52 0.11 0.25 0.000
6:14am 329 0 0 42 97 73.5 50.8 29.30 50.8 582 204 195 -0.61 0.11 0.25 0.000
6:15am 329 0 0 42 97 73.5 50.8 29.30 50.8 582 204 195 -0.60 0.11 0.25 0.000
6:16am 329 0 0 43 97 73.5 50.7 29.30 50.7 582 204 188 -0.69 0.11 0.25 0.000
6:17am 329 0 0 42 97 73.5 50.7 29.30 50.7 582 204 188 -0.68 0.11 0.25 0.000
6:18am 329 0 0 42 97 73.5 50.6 29.30 50.6 582 204 181 -0.77 0.11 0.25 0.000
6:19am 329 0 0 42 97 73.5 50.6 29.30 50.6 582 204 181 -0.76 0.11 0.25 0.000
6:20am 329 0 0 42 97 73.5 50.5 29.30 50.5 582 204 174 -0.84 0.11 0.25 0.000
6:21am 329 0 0 42 97 73.5 50.4 29.30 50.4 582 204 168 -0.93 0.11 0.25 0.000
6:22am 329 0 0 42 97 73.5 50.4 29.30 50.4 582 204 168 -0.91 0.11 0.25 0.000
6:23am 329 0 0 42 97 73.5 50.3 29.30 50.3 582 204 161 -1.00 0.11 0.25 0.000
6:24am 329 0 0 42 97 73.5 50.3 29.30 50.3 581 204 160 -0.98 0.11 0.25 0.000
6:25am 329 0 0 42 97 73.5 50.3 29.30 50.3 580 204 159 -0.96 0.11 0.25 0.000
6:26am 329 0 0 42 97 73.5 50.2 29.30 50.2 578 204 150 -1.05 0.11 0.25 0.000
6:27am 329 0 0 42 97 73.5 50.2 29.30 50.2 576 204 148 -1.03 0.11 0.25 0.000
6:28am 329 0 0 42 97 73.5 50.1 29.30 50.1 574 204 139 -1.11 0.11 0.25 0.000
6:29am 329 0 0 42 97 73.5 50.1 29.30 50.1 574 204 139 -1.09 0.11 0.25 0.000
6:30am 329 0 0 42 97 73.5 50.1 29.30 50.1 575 204 140 -1.07 0.11 0.25 0.000
6:31am 329 0 0 43 97 73.5 50.0 29.30 50.0 575 204 133 -1.16 0.11 0.25 0.000
6:32am 329 0 0 42 97 73.5 50.0 29.30 50.0 574 204 132 -1.14 0.11 0.25 0.000
6:33am 329 0 0 42 97 73.5 50.0 29.31 50.0 572 204 130 -1.12 0.11 0.25 0.000
6:34am 329 0 0 42 97 73.5 49.9 29.31 49.9 570 204 119 -1.20 0.11 0.25 0.000
6:35am 329 0 0 42 97 73.5 49.9 29.31 49.9 569 204 118 -1.18 0.11 0.25 0.000
6:36am 329 0 0 42 97 73.5 49.9 29.31 49.9 569 204 118 -1.16 0.11 0.25 0.000
6:37am 329 0 0 42 97 73.5 49.8 29.31 49.8 568 204 110 -1.24 0.11 0.25 0.000
6:38am 329 0 0 42 97 73.5 49.8 29.31 49.8 567 204 109 -1.22 0.11 0.25 0.000
6:39am 329 0 0 42 97 73.5 49.7 29.31 49.7 567 204 103 -1.30 0.11 0.25 0.000
6:40am 329 0 0 42 97 73.6 49.7 29.31 49.7 567 204 103 -1.28 0.11 0.25 0.000
6:41am 329 0 0 42 97 73.6 49.6 29.31 49.6 567 203 96 -1.35 0.11 0.25 0.000
6:42am 329 0 0 42 97 73.6 49.6 29.31 49.6 567 203 96 -1.33 0.11 0.25 0.000
6:43am 329 0 0 42 97 73.6 49.6 29.31 49.6 567 203 96 -1.31 0.11 0.25 0.000
6:44am 329 0 0 42 97 73.6 49.6 29.31 49.6 568 203 97 -1.29 0.11 0.25 0.000
6:45am 329 0 0 42 97 73.6 49.6 29.31 49.6 568 203 97 -1.27 0.11 0.25 0.000
6:46am 329 0 0 43 97 73.6 49.6 29.31 49.6 568 203 97 -1.25 0.11 0.25 0.000
6:47am 329 0 0 42 97 73.6 49.5 29.31 49.5 567 203 89 -1.32 0.11 0.25 0.000
6:48am 329 0 0 42 97 73.6 49.5 29.31 49.5 567 203 89 -1.30 0.11 0.25 0.000
6:49am 329 0 0 42 97 73.6 49.6 29.31 49.6 567 203 96 -1.18 0.11 0.25 0.000
6:50am 329 0 0 42 97 73.6 49.5 29.31 49.5 567 203 89 -1.26 0.11 0.25 0.000
6:51am 329 0 0 42 97 73.6 49.5 29.31 49.5 567 203 89 -1.24 0.11 0.25 0.000
6:52am 329 0 0 42 97 73.6 49.5 29.31 49.5 567 203 89 -1.22 0.11 0.25 0.000
6:53am 329 0 0 42 97 73.6 49.4 29.31 49.4 567 203 83 -1.30 0.11 0.25 0.000
6:54am 331 0 0 42 97 73.6 49.4 29.31 49.4 568 203 84 -1.28 0.11 0.25 0.000
6:55am 331 0 0 42 97 73.6 49.4 29.31 49.4 569 203 85 -1.26 0.11 0.25 0.000
6:56am 331 0 0 42 97 73.6 49.4 29.31 49.4 568 203 84 -1.23 0.11 0.25 0.000
6:57am 331 0 0 42 97 73.6 49.3 29.31 49.3 569 203 78 -1.31 0.11 0.25 0.000
6:58am 331 0 0 42 97 73.6 49.3 29.31 49.3 569 203 78 -1.29 0.11 0.25 0.000
6:59am 331 0 0 42 97 73.6 49.3 29.31 49.3 570 203 79 -1.27 0.11 0.25 0.000
7:00am 331 0 0 42 97 73.6 49.2 29.31 49.2 571 203 74 -1.35 0.11 0.25 0.000
7:01am 331 0 0 42 97 73.6 49.2 29.31 49.2 570 203 73 -1.32 0.11 0.25 0.000
7:02am 331 0 0 42 97 73.6 49.2 29.31 49.2 569 203 71 -1.30 0.11 0.25 0.000
7:03am 331 0 0 42 96 73.6 49.2 29.31 49.2 568 272 70 -1.28 0.11 0.25 0.000
7:04am 331 0 0 42 96 73.6 49.0 29.31 49.0 567 272 56 -1.46 0.11 0.25 0.000
7:05am 331 0 0 42 96 73.8 49.0 29.31 49.0 567 272 56 -1.43 0.11 0.25 0.000
7:06am 331 0 0 42 96 73.8 49.0 29.31 49.0 567 272 56 -1.41 0.11 0.25 0.000
7:07am 331 0 0 42 96 73.8 48.9 29.31 48.9 566 272 48 -1.49 0.11 0.25 0.000
7:08am 331 0 0 42 96 73.8 48.7 29.31 48.7 565 272 33 -1.66 0.11 0.25 0.000
7:09am 331 0 0 42 96 73.8 48.7 29.32 48.7 564 272 32 -1.63 0.11 0.25 0.000
7:10am 331 0 0 42 96 73.8 48.7 29.32 48.7 562 272 30 -1.61 0.11 0.25 0.000
7:11am 331 0 0 42 96 73.8 48.6 29.32 48.6 561 271 22 -1.68 0.11 0.25 0.000
7:12am 331 0 0 42 96 73.8 48.5 29.32 48.5 560 271 14 -1.75 0.11 0.25 0.000
7:13am 331 0 0 42 96 73.8 48.6 29.32 48.6 559 271 19 -1.62 0.11 0.25 0.000
7:14am 331 0 0 42 96 73.8 48.5 29.32 48.5 559 271 12 -1.69 0.11 0.25 0.000
7:15am 331 0 0 42 96 73.8 48.5 29.32 48.5 558 271 11 -1.67 0.11 0.25 0.000
7:16am 331 0 0 42 96 73.8 48.5 29.32 48.5 560 271 13 -1.64 0.11 0.25 0.000
7:17am 331 0 0 42 96 73.8 48.5 29.32 48.5 560 271 13 -1.61 0.11 0.25 0.000
7:18am 331 0 0 42 96 73.8 48.4 29.32 48.4 560 271 7 -1.68 0.11 0.25 0.000
7:19am 331 0 0 42 96 73.8 48.4 29.32 48.4 562 271 10 -1.66 0.11 0.25 0.000
7:20am 331 0 0 42 96 73.8 48.4 29.32 48.4 561 271 8 -1.63 0.11 0.25 0.000
7:21am 331 0 0 42 96 73.8 48.4 29.32 48.4 560 271 7 -1.60 0.11 0.25 0.000
7:22am 331 0 0 42 96 73.8 48.4 29.32 48.4 558 271 4 -1.57 0.11 0.25 0.000
7:23am 331 0 0 42 96 73.8 48.4 29.32 48.4 556 271 2 -1.55 0.11 0.25 0.000
7:24am 331 0 0 42 96 73.8 48.3 29.32 48.3 556 271 -5 -1.62 0.11 0.25 0.000
7:25am 331 0 0 42 96 73.8 48.4 29.32 48.4 557 271 3 -1.50 0.11 0.25 0.000
7:26am 331 0 0 42 96 73.8 48.4 29.32 48.4 557 271 3 -1.47 0.11 0.25 0.000
7:27am 331 0 0 42 96 73.8 48.3 29.32 48.3 558 271 -3 -1.55 0.11 0.25 0.000
7:28am 331 0 0 42 96 73.8 48.3 29.32 48.3 560 271 -1 -1.52 0.11 0.25 0.000
7:29am 331 0 0 42 96 73.8 48.3 29.32 48.3 559 271 -2 -1.50 0.11 0.25 0.000
7:30am 331 0 0 42 96 73.8 48.3 29.32 48.3 559 271 -2 -1.47 0.11 0.25 0.000
7:31am 331 0 0 42 96 73.8 48.3 29.32 48.3 556 271 -5 -1.45 0.11 0.25 0.000
7:32am 331 0 0 42 96 74.0 48.3 29.32 48.3 555 271 -6 -1.42 0.11 0.25 0.000
7:33am 331 0 0 42 96 74.0 48.3 29.32 48.3 555 271 -6 -1.40 0.11 0.25 0.000
7:34am 331 0 0 42 96 74.0 48.3 29.32 48.3 555 271 -6 -1.38 0.11 0.25 0.000
7:35am 331 0 0 42 96 74.0 48.2 29.33 48.2 554 271 -14 -1.45 0.11 0.25 0.000
7:36am 331 0 0 42 96 74.0 48.3 29.33 48.3 553 271 -9 -1.33 0.11 0.25 0.000
7:37am 331 0 0 42 96 74.0 48.3 29.33 48.3 553 271 -9 -1.31 0.11 0.25 0.000
7:38am 331 0 0 42 96 74.0 48.3 29.33 48.3 553 271 -9 -1.29 0.11 0.25 0.000
7:39am 331 0 0 42 96 74.0 48.3 29.33 48.3 553 271 -9 -1.26 0.11 0.25 0.000
7:40am 331 0 0 42 96 74.0 48.3 29.33 48.3 552 271 -10 -1.24 0.11 0.25 0.000
7:41am 331 0 0 42 96 74.0 48.4 29.33 48.4 553 271 -2 -1.12 0.11 0.25 0.000
7:42am 331 0 0 42 96 74.0 48.4 29.33 48.4 553 271 -2 -1.11 0.11 0.25 0.000
7:43am 331 0 0 42 96 74.0 48.4 29.33 48.4 554 271 -1 -1.09 0.11 0.25 0.000
7:44am 331 0 0 42 96 74.0 48.4 29.33 48.4 554 271 -1 -1.07 0.11 0.25 0.000
7:45am 331 0 0 42 96 74.0 48.4 29.33 48.4 554 271 -1 -1.05 0.11 0.25 0.000
7:46am 331 0 0 42 96 74.0 48.5 29.33 48.5 554 271 6 -0.94 0.11 0.25 0.000
7:47am 331 0 0 42 96 74.0 48.5 29.33 48.5 554 271 6 -0.92 0.11 0.25 0.000
7:48am 331 0 0 42 96 74.0 48.6 29.33 48.6 554 271 13 -0.81 0.11 0.25 0.000
7:49am 330 0 0 42 96 74.0 48.6 29.33 48.6 553 271 12 -0.79 0.11 0.25 0.000
7:50am 330 0 0 44 96 74.0 48.5 29.33 48.5 553 271 5 -0.88 0.11 0.25 0.000
7:51am 330 0 0 42 96 74.0 48.6 29.33 48.6 553 271 12 -0.77 0.11 0.25 0.000
7:52am 330 0 0 42 96 74.0 48.6 29.33 48.6 553 271 12 -0.75 0.11 0.25 0.000
7:53am 330 0 0 42 96 74.0 48.7 29.33 48.7 553 272 18 -0.64 0.11 0.25 0.000
7:54am 330 0 0 42 96 74.0 48.7 29.33 48.7 552 272 17 -0.63 0.11 0.25 0.000
7:55am 330 0 0 42 96 74.0 48.7 29.33 48.7 552 272 17 -0.62 0.11 0.25 0.000
7:56am 330 0 0 42 96 74.0 48.7 29.33 48.7 552 272 17 -0.61 0.11 0.25 0.000
7:57am 330 0 0 42 96 74.0 48.7 29.33 48.7 552 272 17 -0.60 0.11 0.25 0.000
7:58am 330 0 0 42 96 74.0 48.7 29.33 48.7 552 272 17 -0.59 0.11 0.25 0.000
7:59am 330 0 0 42 96 74.0 48.7 29.33 48.7 552 272 17 -0.58 0.11 0.25 0.000
8:00am 330 0 0 42 96 74.0 48.8 29.33 48.8 553 272 25 -0.47 0.11 0.25 0.000
8:01am 330 0 0 42 96 74.0 48.8 29.33 48.8 553 272 25 -0.47 0.11 0.25 0.000
8:02am 330 0 0 42 96 74.0 48.9 29.33 48.9 553 272 32 -0.36 0.11 0.25 0.000
8:03am 330 0 0 42 96 74.0 48.9 29.33 48.9 553 272 32 -0.35 0.11 0.25 0.000
8:04am 330 0 0 42 96 74.0 48.9 29.33 48.9 553 272 32 -0.35 0.11 0.25 0.000
8:05am 330 0 0 42 96 74.0 48.9 29.33 48.9 552 272 31 -0.34 0.11 0.25 0.000
8:06am 330 0 0 42 96 74.0 48.9 29.33 48.9 554 272 33 -0.33 0.11 0.25 0.000
8:07am 330 0 0 42 96 74.0 48.8 29.33 48.8 554 272 26 -0.43 0.11 0.25 0.000
8:08am 330 0 0 42 96 74.0 48.9 29.33 48.9 553 272 32 -0.32 0.11 0.25 0.000
8:09am 330 0 0 42 96 74.0 48.9 29.33 48.9 552 272 31 -0.32 0.11 0.25 0.000
8:10am 330 0 0 42 96 74.0 48.8 29.33 48.8 552 272 24 -0.41 0.11 0.25 0.000
8:11am 330 0 0 42 96 74.0 48.8 29.33 48.8 551 272 23 -0.41 0.11 0.25 0.000
8:12am 330 0 0 42 95 74.0 48.8 29.33 48.8 551 341 23 -0.40 0.11 0.25 0.000
8:13am 330 0 0 42 95 74.0 48.8 29.33 48.8 551 341 23 -0.39 0.11 0.25 0.000
8:14am 330 0 0 42 95 74.0 48.7 29.33 48.7 550 341 15 -0.49 0.11 0.25 0.000
8:15am 330 0 0 42 95 74.0 48.8 29.33 48.8 550 341 22 -0.38 0.11 0.25 0.000
8:16am 330 0 0 42 95 74.0 48.8 29.33 48.8 551 341 23 -0.37 0.11 0.25 0.000
8:17am 330 0 0 42 95 74.0 48.8 29.33 48.8 551 341 23 -0.37 0.11 0.25 0.000
8:18am 330 0 0 42 95 74.0 48.8 29.33 48.8 551 341 23 -0.36 0.11 0.25 0.000
8:19am 330 0 0 42 95 74.0 48.9 29.33 48.9 551 341 30 -0.26 0.11 0.25 0.000
8:20am 330 0 0 42 95 74.0 48.9 29.33 48.9 551 341 30 -0.25 0.11 0.25 0.000
8:21am 330 0 0 42 95 74.0 49.0 29.33 49.0 551 342 36 -0.15 0.11 0.25 0.000
8:22am 330 0 0 42 95 74.0 48.9 29.33 48.9 551 341 30 -0.25 0.11 0.25 0.000
8:23am 330 0 0 42 95 74.2 49.0 29.33 49.0 551 342 36 -0.14 0.11 0.25 0.000
8:24am 330 0 0 42 95 74.0 49.0 29.33 49.0 552 342 37 -0.14 0.11 0.25 0.000
8:25am 330 0 0 42 95 74.0 49.1 29.33 49.1 552 342 44 -0.04 0.11 0.25 0.000
8:26am 330 0 0 42 95 74.2 49.2 29.33 49.2 551 342 50 0.06 0.11 0.25 0.000
8:27am 330 0 0 42 95 74.2 49.2 29.33 49.2 551 342 50 0.06 0.11 0.25 0.000
8:28am 330 0 0 42 95 74.2 49.2 29.33 49.2 551 342 50 0.06 0.11 0.25 0.000
8:29am 330 0 0 42 95 74.2 49.3 29.33 49.3 552 342 57 0.16 0.11 0.25 0.000
8:30am 330 0 0 42 95 74.2 49.3 29.33 49.3 551 342 56 0.15 0.11 0.25 0.000
8:31am 330 0 0 42 95 74.2 49.3 29.33 49.3 551 342 56 0.15 0.11 0.25 0.000
8:32am 330 0 0 42 95 74.2 49.4 29.33 49.4 551 342 63 0.25 0.11 0.25 0.000
8:33am 330 0 0 42 95 74.2 49.5 29.33 49.5 551 342 70 0.34 0.11 0.25 0.000
8:34am 330 0 0 42 96 74.2 49.5 29.33 49.5 551 273 70 0.34 0.11 0.25 0.000
8:35am 330 0 0 42 96 74.2 49.6 29.33 49.6 551 273 76 0.43 0.11 0.25 0.000
8:36am 330 0 0 42 96 74.2 49.7 29.33 49.7 551 273 83 0.52 0.11 0.25 0.000
8:37am 330 0 0 42 96 74.2 49.8 29.33 49.8 551 273 90 0.61 0.11 0.25 0.000
8:38am 330 0 0 42 96 74.2 49.8 29.33 49.8 551 273 90 0.60 0.11 0.25 0.000
8:39am 330 0 0 42 95 74.2 49.9 29.33 49.9 551 343 97 0.69 0.11 0.25 0.000
8:40am 330 0 0 42 95 74.2 49.9 29.33 49.9 551 343 97 0.68 0.11 0.25 0.000
8:41am 360 0 0 42 95 74.2 49.9 29.33 49.9 551 343 97 0.67 0.11 0.25 0.000
8:42am 360 0 0 42 95 74.2 49.9 29.33 49.9 552 343 98 0.66 0.11 0.25 0.000
8:43am 360 0 0 42 94 74.2 49.9 29.33 49.9 552 414 98 0.65 0.11 0.25 0.000
8:44am 360 0 0 42 94 74.2 49.9 29.33 49.9 551 414 97 0.64 0.11 0.25 0.000
8:45am 360 0 0 42 93 74.2 49.8 29.33 49.8 552 485 91 0.53 0.11 0.25 0.000
8:46am 360 0 0 42 93 74.2 49.7 29.33 49.7 552 484 84 0.42 0.11 0.25 0.000
8:47am 360 0 0 42 92 74.2 49.8 29.33 49.8 551 557 90 0.51 0.11 0.25 0.000
8:48am 360 0 0 42 91 74.2 49.7 29.33 49.7 551 629 83 0.40 0.11 0.25 0.000
8:49am 25 0 0 42 91 74.2 49.7 29.33 49.7 551 629 83 0.40 0.11 0.25 0.000
8:50am 25 0 0 42 91 74.2 49.7 29.33 49.7 552 629 84 0.39 0.11 0.25 0.000
8:51am 26 0 0 42 91 74.2 49.9 29.33 49.9 551 629 97 0.58 0.11 0.25 0.000
8:52am 26 0 0 42 90 74.2 49.9 29.33 49.9 551 703 97 0.57 0.11 0.25 0.000
8:53am 26 0 0 42 89 74.2 49.9 29.33 49.9 551 777 97 0.56 0.11 0.25 0.000
8:54am 23 0 0 42 90 74.2 50.0 29.33 50.0 551 703 103 0.65 0.11 0.25 0.000
8:55am 23 0 0 42 90 74.2 50.0 29.33 50.0 551 703 103 0.64 0.11 0.25 0.000
8:56am 23 0 0 42 90 74.2 50.1 29.33 50.1 551 703 110 0.73 0.11 0.25 0.000
8:57am 23 0 0 42 90 74.2 50.1 29.33 50.1 551 703 110 0.72 0.11 0.25 0.000
8:58am 23 0 0 42 89 74.2 50.1 29.33 50.1 551 777 110 0.71 0.11 0.25 0.000
8:59am 23 0 0 42 89 74.2 50.2 29.33 50.2 550 778 116 0.79 0.11 0.25 0.000
9:00am 47 0 0 42 88 74.2 50.2 29.33 50.2 551 853 117 0.78 0.11 0.25 0.000
9:01am 47 0 0 42 87 74.2 50.1 29.33 50.1 550 928 109 0.67 0.11 0.25 0.000
9:02am 47 0 0 42 87 74.2 50.2 29.33 50.2 550 928 116 0.76 0.11 0.25 0.000
9:03am 47 0 0 42 87 74.2 50.3 29.33 50.3 550 929 122 0.84 0.11 0.25 0.000
9:04am 83 0 0 42 87 74.2 50.3 29.33 50.3 550 929 122 0.83 0.11 0.25 0.000
9:05am 33 0 0 42 87 74.2 50.3 29.33 50.3 550 929 122 0.81 0.11 0.25 0.000
9:06am 17 0 0 42 85 74.2 50.3 29.33 50.3 548 1082 120 0.80 0.11 0.25 0.000
9:07am 19 0 0 42 85 74.3 50.3 29.33 50.3 548 1082 120 0.79 0.11 0.25 0.000
9:08am 21 0 0 42 84 74.3 50.4 29.33 50.4 547 1161 124 0.88 0.11 0.25 0.000
9:09am 21 0 0 42 83 74.3 50.4 29.33 50.4 547 1240 124 0.86 0.11 0.25 0.000
9:10am 83 0 0 42 83 74.3 50.5 29.33 50.5 547 1241 131 0.95 0.11 0.25 0.000
9:11am 25 0 0 42 83 74.3 50.5 29.33 50.5 546 1241 130 0.93 0.11 0.25 0.000
9:12am 25 0 0 42 83 74.3 50.6 29.34 50.6 545 1241 135 1.01 0.11 0.25 0.000
9:13am 25 0 0 42 83 74.3 50.7 29.34 50.7 545 1242 142 1.10 0.11 0.25 0.000
9:14am 25 0 0 42 84 74.3 50.8 29.34 50.8 545 1163 149 1.18 0.11 0.25 0.000
9:15am 25 0 0 42 84 74.3 50.9 29.34 50.9 543 1164 153 1.26 0.11 0.25 0.000
9:16am 25 0 0 42 85 74.3 51.0 29.34 51.0 542 1086 159 1.34 0.11 0.25 0.000
9:17am 25 0 0 42 85 74.3 51.1 29.34 51.1 544 1086 168 1.41 0.11 0.25 0.000
9:18am 25 0 0 42 85 74.3 51.2 29.34 51.2 545 1087 176 1.49 0.11 0.25 0.000
9:19am 25 0 0 42 83 74.3 51.2 29.33 51.2 546 1244 177 1.46 0.11 0.25 0.000
9:20am 25 0 0 42 83 74.3 51.2 29.33 51.2 547 1244 178 1.44 0.11 0.25 0.000
9:21am 27 0 0 42 83 74.3 51.3 29.33 51.3 547 1245 184 1.51 0.11 0.24 0.000
9:22am 27 0 0 42 82 74.3 51.4 29.33 51.4 547 1326 191 1.59 0.11 0.24 0.000
9:23am 27 0 0 42 82 74.3 51.5 29.33 51.5 547 1326 198 1.66 0.11 0.24 0.000
9:24am 78 0 0 42 82 74.3 51.6 29.34 51.6 544 1327 201 1.73 0.11 0.24 0.000
9:25am 78 0 0 42 80 74.3 51.7 29.34 51.7 542 1490 205 1.80 0.11 0.24 0.000
9:26am 78 0 0 42 80 74.3 51.7 29.34 51.7 541 1490 204 1.77 0.11 0.24 0.000
9:27am 78 0 0 42 79 74.3 51.7 29.34 51.7 543 1573 207 1.75 0.11 0.24 0.000
9:28am 78 0 0 42 79 74.3 51.8 29.34 51.8 543 1574 213 1.82 0.11 0.24 0.000
9:29am 78 0 0 42 79 74.3 51.9 29.34 51.9 541 1575 218 1.88 0.11 0.24 0.000
9:30am 78 0 0 42 79 74.3 52.0 29.34 52.0 542 1575 225 1.95 0.11 0.24 0.000
9:31am 77 0 0 44 79 74.3 52.1 29.34 52.1 541 1576 231 2.02 0.11 0.24 0.000
9:32am 77 0 0 42 79 74.3 52.2 29.34 52.2 543 1577 240 2.08 0.11 0.24 0.000
9:33am 77 0 0 42 80 74.3 52.3 29.34 52.3 543 1494 247 2.15 0.11 0.24 0.000
9:34am 77 0 0 42 80 74.3 52.4 29.34 52.4 544 1495 254 2.21 0.11 0.24 0.000
9:35am 77 0 0 42 78 74.3 52.5 29.34 52.5 542 1663 259 2.28 0.11 0.24 0.000
9:36am 316 0 0 42 78 74.3 52.5 29.34 52.5 540 1663 256 2.24 0.11 0.24 0.000
9:37am 316 0 0 42 78 74.3 52.6 29.34 52.6 539 1663 262 2.30 0.11 0.24 0.000
9:38am 316 0 0 42 78 74.3 52.6 29.34 52.6 540 1663 263 2.26 0.11 0.24 0.000
9:39am 316 0 0 42 78 74.3 52.6 29.34 52.6 541 1663 264 2.22 0.11 0.24 0.000
9:40am 351 0 0 42 77 74.3 52.6 29.34 52.6 541 1749 264 2.19 0.11 0.24 0.000
9:41am 352 0 0 42 75 74.3 52.5 29.34 52.5 541 1921 258 2.05 0.11 0.23 0.000
9:42am 349 0 0 42 76 74.3 52.5 29.34 52.5 540 1834 256 2.02 0.11 0.23 0.000
9:43am 48 0 0 42 75 74.3 52.4 29.34 52.4 541 1920 251 1.89 0.11 0.23 0.000
9:44am 41 0 0 42 75 74.3 52.4 29.34 52.4 544 1920 254 1.86 0.11 0.23 0.000
9:45am 41 0 0 42 74 74.3 52.4 29.34 52.4 544 2008 254 1.83 0.11 0.23 0.000
9:46am 39 0 0 42 74 74.3 52.4 29.34 52.4 545 2008 256 1.80 0.11 0.23 0.000
9:47am 39 0 0 42 74 74.3 52.3 29.33 52.3 546 2007 250 1.67 0.11 0.23 0.000
9:48am 39 0 0 42 74 74.3 52.3 29.34 52.3 545 2007 249 1.64 0.11 0.23 0.000
9:49am 39 0 0 42 75 74.3 52.3 29.33 52.3 546 1919 250 1.61 0.11 0.23 0.000
9:50am 39 0 0 42 75 74.3 52.4 29.33 52.4 547 1920 258 1.69 0.11 0.23 0.000
9:51am 39 0 0 42 76 74.3 52.4 29.33 52.4 548 1833 259 1.66 0.11 0.22 0.000
9:52am 41 0 0 42 75 74.5 52.4 29.33 52.4 548 1920 259 1.63 0.11 0.22 0.000
9:53am 54 0 0 42 75 74.3 52.5 29.33 52.5 548 1921 266 1.70 0.11 0.22 0.000
9:54am 54 0 0 42 74 74.3 52.5 29.33 52.5 548 2009 266 1.67 0.11 0.22 0.000
9:55am 54 0 0 42 75 74.3 52.6 29.33 52.6 548 1922 272 1.74 0.11 0.22 0.000
9:56am 54 0 0 42 74 74.3 52.6 29.33 52.6 546 2010 270 1.71 0.11 0.22 0.000
9:57am 353 0 0 42 74 74.3 52.7 29.33 52.7 547 2011 278 1.79 0.11 0.22 0.000
9:58am 358 0 0 42 74 74.3 52.7 29.33 52.7 547 2011 278 1.76 0.11 0.22 0.000
9:59am 358 0 0 42 75 74.5 52.7 29.33 52.7 547 1923 278 1.73 0.11 0.22 0.000
10:00am 317 0 0 42 76 74.5 52.7 29.33 52.7 546 1835 277 1.70 0.11 0.22 0.000
10:01am 316 0 0 42 76 74.5 52.7 29.33 52.7 547 1835 278 1.67 0.11 0.21 0.000
10:02am 316 0 0 42 76 74.5 52.8 29.33 52.8 547 1836 284 1.74 0.11 0.21 0.000
10:03am 316 0 0 42 76 74.5 52.8 29.33 52.8 546 1836 283 1.72 0.11 0.21 0.000
10:04am 316 0 0 42 76 74.5 52.8 29.34 52.8 545 1836 282 1.69 0.11 0.21 0.000
10:05am 316 0 0 42 77 74.5 52.9 29.34 52.9 545 1751 289 1.76 0.11 0.21 0.000
10:06am 316 0 0 42 79 74.5 53.0 29.34 53.0 545 1582 295 1.83 0.11 0.20 0.000
10:07am 337 0 0 42 77 74.5 53.0 29.34 53.0 545 1752 295 1.80 0.11 0.20 0.000
10:08am 347 0 0 42 76 74.5 53.0 29.34 53.0 545 1838 295 1.77 0.11 0.20 0.000
10:09am 347 0 0 42 74 74.5 53.0 29.33 53.0 546 2013 297 1.74 0.11 0.20 0.000
10:10am 74 0 0 42 74 74.5 53.0 29.33 53.0 546 2013 297 1.71 0.11 0.20 0.000
10:11am 73 0 0 42 73 74.5 53.0 29.33 53.0 547 2103 298 1.68 0.11 0.19 0.000
10:12am 73 0 0 42 72 74.5 53.0 29.33 53.0 547 2193 298 1.65 0.11 0.19 0.000
10:13am 73 0 0 42 73 74.5 53.0 29.33 53.0 549 2103 301 1.63 0.11 0.19 0.000
10:14am 73 0 0 42 74 74.5 53.0 29.33 53.0 550 2013 302 1.60 0.11 0.19 0.000
10:15am 73 0 0 42 74 74.5 53.1 29.33 53.1 551 2014 310 1.67 0.11 0.19 0.000
10:16am 73 0 0 42 74 74.5 53.1 29.33 53.1 551 2014 310 1.65 0.11 0.19 0.000
10:17am 74 0 0 42 74 74.5 53.1 29.33 53.1 551 2014 310 1.62 0.11 0.19 0.000
10:18am 73 0 0 42 73 74.5 53.2 29.33 53.2 552 2104 318 1.69 0.11 0.19 0.000
10:19am 73 0 0 42 73 74.5 53.2 29.33 53.2 552 2104 318 1.66 0.11 0.19 0.000
10:20am 73 0 0 42 73 74.5 53.3 29.33 53.3 552 2105 325 1.74 0.11 0.19 0.000
10:21am 73 0 0 42 73 74.5 53.3 29.33 53.3 552 2105 325 1.71 0.11 0.18 0.000
10:22am 73 0 0 42 74 74.5 53.3 29.33 53.3 552 2016 325 1.68 0.11 0.18 0.000
10:23am 73 0 0 42 74 74.5 53.4 29.33 53.4 551 2017 330 1.75 0.11 0.18 0.000
10:24am 73 0 0 42 74 74.5 53.4 29.33 53.4 552 2017 331 1.72 0.11 0.18 0.000
10:25am 73 0 0 42 74 74.5 53.4 29.33 53.4 552 2017 331 1.69 0.11 0.18 0.000
10:26am 73 0 0 42 74 74.5 53.4 29.33 53.4 552 2017 331 1.66 0.11 0.18 0.000
10:27am 73 0 0 42 73 74.5 53.5 29.33 53.5 553 2107 339 1.74 0.11 0.18 0.000
10:28am 73 0 0 42 73 74.5 53.5 29.33 53.5 553 2107 339 1.71 0.11 0.18 0.000
10:29am 73 0 0 42 72 74.5 53.5 29.32 53.5 555 2198 341 1.68 0.11 0.18 0.000
10:30am 73 0 0 42 72 74.5 53.5 29.32 53.5 557 2198 344 1.65 0.11 0.18 0.000
10:31am 73 0 0 42 72 74.5 53.5 29.32 53.5 558 2198 345 1.63 0.11 0.17 0.000
10:32am 77 0 0 42 72 74.5 53.6 29.32 53.6 558 2199 351 1.70 0.11 0.17 0.000
10:33am 76 0 0 42 73 74.5 53.6 29.32 53.6 560 2108 355 1.67 0.11 0.17 0.000
10:34am 80 0 0 42 72 74.5 53.6 29.32 53.6 562 2199 357 1.64 0.11 0.17 0.000
10:35am 80 0 0 42 72 74.5 53.6 29.32 53.6 561 2199 356 1.62 0.11 0.17 0.000
10:36am 80 0 0 42 72 74.5 53.6 29.32 53.6 562 2199 357 1.59 0.11 0.17 0.000
10:37am 342 0 0 42 72 74.5 53.6 29.32 53.6 561 2199 356 1.56 0.11 0.17 0.000
10:38am 347 0 0 42 72 74.5 53.6 29.32 53.6 560 2199 355 1.54 0.11 0.17 0.000
10:39am 347 0 0 42 71 74.5 53.6 29.32 53.6 560 2291 355 1.51 0.11 0.17 0.000
10:40am 347 0 0 42 72 74.5 53.6 29.32 53.6 562 2199 357 1.49 0.11 0.17 0.000
10:41am 347 0 0 42 71 74.5 53.7 29.32 53.7 564 2292 366 1.56 0.11 0.17 0.000
10:42am 348 0 0 42 71 74.5 53.7 29.31 53.7 565 2292 367 1.54 0.11 0.17 0.000
10:43am 351 0 0 42 72 74.5 53.7 29.31 53.7 565 2200 367 1.51 0.11 0.17 0.000
10:44am 351 0 0 42 72 74.5 53.7 29.31 53.7 565 2200 367 1.49 0.11 0.17 0.000
10:45am 351 0 0 42 71 74.5 53.8 29.31 53.8 565 2293 374 1.56 0.11 0.17 0.000
10:46am 351 0 0 42 72 74.5 53.9 29.31 53.9 566 2202 382 1.63 0.11 0.17 0.000
10:47am 97 0 0 42 72 74.5 53.9 29.31 53.9 566 2202 382 1.61 0.11 0.17 0.000
10:48am 97 0 0 42 71 74.5 54.0 29.31 54.0 566 2294 388 1.68 0.11 0.17 0.000
10:49am 76 0 0 42 72 74.5 54.0 29.31 54.0 566 2203 388 1.65 0.11 0.17 0.000
10:50am 76 0 0 42 71 74.5 54.0 29.31 54.0 565 2294 387 1.62 0.11 0.17 0.000
10:51am 76 0 0 42 72 74.5 54.1 29.31 54.1 565 2204 394 1.70 0.11 0.16 0.000
10:52am 80 0 0 42 72 74.5 54.1 29.31 54.1 565 2204 394 1.67 0.11 0.16 0.000
10:53am 80 0 0 42 72 74.5 54.1 29.32 54.1 564 2204 393 1.64 0.11 0.16 0.000
10:54am 80 0 0 42 72 74.5 54.2 29.32 54.2 563 2204 398 1.71 0.11 0.16 0.000
10:55am 80 0 0 42 72 74.5 54.2 29.32 54.2 560 2204 393 1.68 0.11 0.16 0.000
10:56am 80 0 0 42 72 74.7 54.3 29.32 54.3 559 2205 399 1.75 0.11 0.16 0.000
10:57am 80 0 0 42 72 74.7 54.4 29.32 54.4 559 2206 406 1.82 0.11 0.16 0.000
10:58am 32 0 0 42 70 74.7 54.4 29.32 54.4 560 2392 408 1.79 0.11 0.16 0.000
10:59am 36 0 0 42 72 74.7 54.5 29.32 54.5 561 2207 416 1.86 0.11 0.16 0.000
11:00am 79 0 0 42 70 74.7 54.5 29.32 54.5 564 2393 419 1.83 0.11 0.16 0.000
11:01am 79 0 0 42 70 74.7 54.5 29.31 54.5 565 2393 420 1.80 0.11 0.16 0.000
11:02am 79 0 0 42 70 74.7 54.6 29.31 54.6 566 2394 428 1.87 0.11 0.16 0.000
11:03am 79 0 0 42 73 74.7 54.7 29.31 54.7 566 2118 435 1.94 0.11 0.16 0.000
11:04am 79 0 0 42 72 74.7 54.7 29.31 54.7 566 2209 435 1.91 0.11 0.16 0.000
11:05am 79 0 0 42 71 74.7 54.7 29.31 54.7 566 2301 435 1.88 0.11 0.16 0.000
11:06am 79 0 0 42 70 74.7 54.7 29.31 54.7 566 2395 435 1.85 0.11 0.16 0.000
11:07am 79 0 0 42 71 74.7 54.8 29.31 54.8 566 2302 441 1.91 0.11 0.16 0.000
11:08am 79 0 0 42 72 74.7 54.9 29.31 54.9 565 2211 447 1.98 0.11 0.16 0.000
11:09am 79 0 0 42 72 74.7 55.0 29.31 55.0 565 2212 453 2.05 0.11 0.16 0.000
11:10am 79 0 0 42 70 74.7 55.0 29.31 55.0 565 2398 453 2.02 0.11 0.16 0.000
11:11am 79 0 0 42 70 74.7 55.0 29.31 55.0 566 2398 454 1.98 0.11 0.15 0.000
11:12am 79 0 0 42 69 74.7 55.1 29.31 55.1 566 2494 461 2.05 0.11 0.15 0.000
11:13am 79 0 0 42 69 74.7 55.1 29.31 55.1 566 2494 461 2.01 0.11 0.15 0.000
11:14am 79 0 0 42 70 74.7 55.2 29.31 55.2 567 2400 469 2.08 0.11 0.15 0.000
11:15am 79 0 0 42 70 74.7 55.3 29.31 55.3 570 2401 479 2.14 0.11 0.15 0.000
11:16am 79 0 0 42 71 74.7 55.4 29.31 55.4 570 2308 485 2.21 0.11 0.14 0.000
11:17am 79 0 0 42 71 74.7 55.5 29.31 55.5 569 2309 491 2.27 0.11 0.14 0.000
11:18am 79 0 0 42 72 74.7 55.6 29.31 55.6 570 2218 499 2.33 0.11 0.14 0.000
11:19am 79 0 0 42 70 74.7 55.7 29.31 55.7 569 2405 504 2.40 0.11 0.14 0.000
11:20am 79 0 0 42 69 74.7 55.7 29.31 55.7 567 2500 502 2.35 0.11 0.14 0.000
11:21am 81 0 0 42 66 74.7 55.8 29.31 55.8 568 2794 510 2.41 0.11 0.13 0.000
11:22am 29 0 0 42 64 74.7 55.9 29.31 55.9 570 2996 518 2.47 0.11 0.13 0.000
11:23am 31 0 0 42 64 74.7 55.9 29.31 55.9 571 2996 520 2.43 0.11 0.13 0.000
11:24am 31 0 0 43 63 74.7 55.9 29.31 55.9 572 3099 521 2.39 0.11 0.13 0.000
11:25am 79 0 0 42 62 74.7 55.9 29.31 55.9 572 3204 521 2.35 0.11 0.13 0.000
11:26am 79 0 0 42 63 74.7 55.9 29.31 55.9 573 3099 523 2.31 0.11 0.13 0.000
11:27am 79 0 0 42 63 74.7 56.0 29.31 56.0 572 3101 528 2.38 0.11 0.13 0.000
11:28am 2 0 0 42 64 74.7 55.9 29.31 55.9 573 2996 523 2.24 0.11 0.13 0.000
11:29am 83 0 0 42 62 74.7 55.9 29.30 55.9 574 3204 524 2.20 0.11 0.13 0.000
11:30am 324 0 0 42 63 74.7 55.9 29.31 55.9 573 3099 523 2.17 0.11 0.13 0.000
11:31am 324 0 0 42 65 74.7 55.9 29.31 55.9 572 2895 522 2.13 0.11 0.13 0.000
11:32am 321 0 0 42 62 74.7 55.8 29.30 55.8 574 3202 518 1.99 0.11 0.13 0.000
11:33am 232 0 0 42 65 74.7 55.9 29.30 55.9 576 2895 526 2.06 0.11 0.13 0.000
11:34am 232 0 0 42 66 74.7 55.9 29.30 55.9 575 2795 525 2.03 0.11 0.13 0.000
11:35am 333 0 0 42 65 74.7 55.9 29.30 55.9 576 2895 526 1.99 0.11 0.13 0.000
11:36am 70 0 0 42 65 74.7 55.9 29.30 55.9 578 2895 529 1.96 0.11 0.12 0.000
11:37am 55 0 0 42 62 74.7 55.9 29.30 55.9 577 3204 528 1.93 0.11 0.12 0.000
11:38am 55 0 0 42 62 74.7 55.9 29.30 55.9 577 3204 528 1.90 0.11 0.12 0.000
11:39am 55 0 0 42 62 74.7 55.9 29.30 55.9 576 3204 526 1.86 0.11 0.12 0.000
11:40am 55 0 0 42 63 74.7 55.9 29.30 55.9 577 3099 528 1.83 0.11 0.12 0.000
11:41am 55 0 0 42 65 74.7 56.0 29.30 56.0 577 2896 534 1.90 0.11 0.12 0.000
11:42am 12 0 0 42 64 74.7 55.9 29.30 55.9 578 2996 529 1.77 0.11 0.12 0.000
11:43am 12 0 0 42 63 74.7 55.9 29.30 55.9 577 3099 528 1.74 0.11 0.12 0.000
11:44am 57 0 0 42 64 74.7 55.9 29.30 55.9 576 2996 526 1.71 0.11 0.12 0.000
11:45am 90 0 0 42 63 74.7 55.9 29.30 55.9 575 3099 525 1.69 0.11 0.12 0.000
11:46am 90 0 0 42 62 74.7 55.9 29.30 55.9 575 3204 525 1.66 0.11 0.12 0.000
11:47am 90 0 0 42 62 74.7 55.9 29.30 55.9 577 3204 528 1.63 0.11 0.12 0.000
11:48am 90 0 0 42 63 74.7 55.9 29.30 55.9 577 3099 528 1.60 0.11 0.12 0.000
11:49am 98 0 0 42 64 74.7 55.9 29.30 55.9 578 2996 529 1.58 0.11 0.12 0.000
11:50am 98 0 0 42 63 74.7 56.0 29.30 56.0 579 3101 536 1.65 0.11 0.12 0.000
11:51am 129 0 0 42 64 74.7 56.2 29.30 56.2 579 3000 550 1.82 0.11 0.12 0.000
11:52am 109 4 4 42 63 74.7 56.3 29.30 56.1 580 3105 557 1.89 0.11 0.12 0.000
11:53am 101 3 4 42 63 74.7 56.4 29.30 56.4 580 3106 564 1.96 0.11 0.12 0.000
11:54am 72 3 5 42 63 74.7 56.6 29.30 56.6 580 3109 577 2.12 0.11 0.12 0.000
11:55am 89 5 5 42 63 74.7 56.8 29.30 56.2 580 3111 590 2.29 0.11 0.12 0.000
11:56am 90 5 5 42 62 74.7 56.9 29.30 56.3 580 3217 597 2.35 0.11 0.12 0.000
11:57am 193 0 5 42 63 74.7 57.0 29.30 57.0 579 3114 602 2.41 0.11 0.12 0.000
11:58am 193 1 5 42 64 74.7 57.2 29.30 57.2 579 3013 616 2.57 0.11 0.12 0.000
11:59am 133 2 5 42 63 74.7 57.3 29.30 57.3 579 3118 622 2.62 0.11 0.12 0.000
12:00pm 60 3 5 42 65 74.9 57.5 29.30 57.5 580 2915 636 2.78 0.11 0.12 0.000
12:01pm 71 0 3 42 60 74.9 57.7 29.30 57.7 581 3443 651 2.93 0.11 0.12 0.000
12:02pm 44 3 3 42 61 74.9 57.8 29.30 57.8 581 3337 657 2.98 0.11 0.12 0.000
12:03pm 44 1 3 42 62 74.9 58.0 29.30 58.0 583 3233 673 3.13 0.11 0.12 0.000
12:04pm 102 2 3 42 61 74.9 58.2 29.30 58.2 583 3342 686 3.28 0.11 0.12 0.000
12:05pm 83 3 6 42 60 74.9 58.3 29.30 58.3 583 3452 692 3.32 0.11 0.12 0.000
12:06pm 77 5 8 42 59 74.9 58.5 29.30 58.2 582 3565 704 3.47 0.11 0.12 0.000
12:07pm 57 9 11 42 57 74.9 58.4 29.30 56.7 582 3789 698 3.31 0.11 0.12 0.000
12:08pm 80 1 11 42 58 74.9 58.3 29.30 58.3 581 3674 690 3.16 0.11 0.12 0.000
12:09pm 80 3 11 42 58 74.9 58.3 29.30 58.3 582 3674 691 3.10 0.11 0.12 0.000
12:10pm 300 3 11 42 59 74.9 58.3 29.30 58.3 583 3562 692 3.05 0.11 0.12 0.000
12:11pm 347 3 4 42 60 74.9 58.3 29.29 58.3 584 3452 694 3.00 0.11 0.12 0.000
12:12pm 87 2 7 42 59 74.9 58.4 29.29 58.4 584 3564 700 3.05 0.11 0.12 0.000
12:13pm 230 2 7 42 61 74.9 58.4 29.29 58.4 590 3345 708 3.00 0.11 0.12 0.000
12:14pm 9 4 8 42 59 74.9 58.6 29.29 58.6 590 3567 721 3.15 0.11 0.12 0.000
12:15pm 4 5 8 42 56 74.9 58.7 29.29 58.4 591 3909 729 3.20 0.11 0.12 0.000
12:16pm 345 0 8 42 53 74.9 58.7 29.29 58.7 590 4267 728 3.15 0.11 0.12 0.000
12:17pm 59 2 8 42 55 74.9 58.8 29.29 58.8 588 4028 732 3.19 0.11 0.12 0.000
12:18pm 98 5 8 42 56 74.9 58.8 29.29 58.6 587 3911 731 3.14 0.11 0.12 0.000
12:19pm 90 1 8 42 57 74.9 58.9 29.29 58.9 587 3797 737 3.19 0.11 0.12 0.000
12:20pm 39 5 8 42 57 74.9 59.0 29.29 58.8 588 3799 745 3.23 0.11 0.12 0.000
12:21pm 35 0 5 42 56 74.9 59.1 29.29 59.1 587 3916 751 3.28 0.11 0.12 0.000
12:22pm 18 2 5 42 57 74.9 59.3 29.29 59.3 588 3804 765 3.42 0.11 0.12 0.000
12:23pm 90 3 6 42 57 74.9 59.4 29.29 59.4 589 3805 772 3.47 0.11 0.12 0.000
12:24pm 44 1 6 42 56 74.9 59.6 29.29 59.6 592 3924 789 3.61 0.11 0.12 0.000
12:25pm 77 0 6 42 54 74.9 59.7 29.28 59.7 593 4163 797 3.65 0.11 0.12 0.000
12:26pm 316 2 3 42 56 74.9 59.9 29.28 59.9 594 3929 811 3.79 0.11 0.12 0.000
12:27pm 355 1 3 42 56 74.9 60.1 29.28 60.1 593 3933 823 3.92 0.11 0.12 0.000
12:28pm 77 4 5 42 54 74.9 60.2 29.28 60.2 593 4172 829 3.96 0.11 0.12 0.000
12:29pm 77 1 7 42 54 74.9 60.3 29.29 60.3 592 4174 835 3.99 0.11 0.12 0.000
12:30pm 13 4 7 42 56 74.9 60.5 29.28 60.5 594 3939 850 4.12 0.11 0.12 0.000
12:31pm 24 5 5 42 56 74.9 60.6 29.28 60.6 594 3941 857 4.15 0.11 0.12 0.000
12:32pm 5 3 5 42 54 74.9 60.6 29.28 60.6 594 4179 857 4.09 0.11 0.12 0.000
12:33pm 72 5 5 42 52 74.9 60.7 29.28 60.7 595 4428 864 4.12 0.11 0.12 0.000
12:34pm 40 0 6 42 52 74.9 60.7 29.28 60.7 594 4428 863 4.05 0.11 0.12 0.000
12:35pm 39 2 6 42 52 74.9 60.6 29.28 60.6 595 4426 858 3.88 0.11 0.12 0.000
12:36pm 39 2 3 42 51 74.9 60.6 29.28 60.6 595 4552 858 3.82 0.11 0.12 0.000
12:37pm 39 0 3 42 54 74.9 60.7 29.28 60.7 595 4181 864 3.85 0.11 0.12 0.000
12:38pm 35 3 3 42 54 74.9 60.7 29.28 60.7 595 4181 864 3.79 0.11 0.12 0.000
12:39pm 80 4 7 42 51 74.9 60.8 29.28 60.8 596 4556 872 3.83 0.11 0.12 0.000
12:40pm 80 0 7 42 50 74.9 60.8 29.28 60.8 596 4684 872 3.76 0.11 0.12 0.000
12:41pm 80 2 2 42 51 74.9 60.8 29.28 60.8 596 4556 872 3.70 0.11 0.12 0.000
12:42pm 43 2 7 42 50 74.9 60.9 29.28 60.9 596 4686 878 3.74 0.11 0.12 0.000
12:43pm 12 7 7 42 49 74.9 60.9 29.28 60.3 598 4817 882 3.68 0.11 0.12 0.000
12:44pm 310 3 7 42 50 74.9 60.9 29.28 60.9 599 4686 883 3.62 0.11 0.12 0.000
12:45pm 99 2 7 42 53 74.9 60.9 29.28 60.9 598 4307 882 3.56 0.11 0.12 0.000
12:46pm 329 4 5 42 52 74.9 60.9 29.28 60.9 599 4431 883 3.50 0.11 0.12 0.000
12:47pm 274 2 6 42 51 74.9 60.8 29.27 60.8 603 4556 881 3.34 0.11 0.12 0.000
12:48pm 321 2 6 42 53 74.9 60.9 29.27 60.9 605 4307 890 3.38 0.11 0.12 0.000
12:49pm 60 3 6 42 54 74.9 60.9 29.27 60.9 605 4185 890 3.33 0.11 0.12 0.000
12:50pm 4 7 7 42 52 74.9 60.9 29.27 60.3 605 4431 890 3.27 0.11 0.12 0.000
12:51pm 284 2 9 41 50 74.9 60.9 29.27 60.9 606 4686 891 3.22 0.11 0.12 0.000
12:52pm 54 0 9 42 53 74.9 60.9 29.27 60.9 606 4307 891 3.17 0.11 0.12 0.000
12:53pm 46 1 9 42 53 74.9 61.0 29.27 61.0 608 4309 900 3.21 0.11 0.12 0.000
12:54pm 13 3 9 42 53 74.9 61.1 29.27 61.1 608 4311 906 3.26 0.11 0.12 0.000
12:55pm 134 1 9 42 52 74.9 61.3 29.27 61.3 609 4439 921 3.40 0.11 0.12 0.000
12:56pm 19 5 5 42 52 74.9 61.4 29.27 61.4 609 4441 928 3.44 0.11 0.12 0.000
12:57pm 15 2 6 42 51 74.9 61.5 29.27 61.5 609 4569 935 3.49 0.11 0.12 0.000
12:58pm 15 0 6 42 51 74.9 61.6 29.27 61.6 609 4571 941 3.53 0.11 0.12 0.000
12:59pm 15 0 6 42 53 74.9 61.7 29.27 61.7 609 4322 948 3.57 0.11 0.12 0.000
1:00pm 15 1 6 42 54 74.9 62.0 29.27 62.0 610 4204 968 3.81 0.11 0.12 0.000
1:01pm 352 3 3 42 53 74.9 62.2 29.27 62.2 610 4331 981 3.95 0.11 0.12 0.000
1:02pm 28 1 3 42 51 74.9 62.4 29.27 62.4 609 4587 993 4.08 0.11 0.12 0.000
1:03pm 348 4 5 42 50 74.9 62.5 29.27 62.5 609 4718 1000 4.11 0.11 0.12 0.000
1:04pm 79 1 5 42 49 74.9 62.6 29.27 62.6 609 4852 1006 4.14 0.11 0.12 0.000
1:05pm 35 6 6 42 51 74.9 62.6 29.27 62.6 610 4591 1007 4.07 0.11 0.12 0.000
1:06pm 356 2 7 42 48 74.9 62.6 29.27 62.6 609 4986 1006 4.00 0.11 0.12 0.000
1:07pm 358 3 7 42 48 74.9 62.4 29.27 62.4 610 4982 994 3.74 0.11 0.12 0.000
1:08pm 74 5 8 42 46 74.9 62.2 29.27 62.2 609 5253 980 3.48 0.11 0.12 0.000
1:09pm 91 4 8 42 47 74.9 61.9 29.27 61.9 610 5108 962 3.12 0.11 0.12 0.000
1:10pm 27 3 8 42 48 74.9 61.8 29.27 61.8 609 4969 954 2.98 0.11 0.12 0.000
1:11pm 4 4 5 42 48 74.9 61.8 29.27 61.8 609 4969 954 2.93 0.11 0.12 0.000
1:12pm 340 0 7 42 48 74.9 61.6 29.27 61.6 609 4965 941 2.68 0.11 0.12 0.000
1:13pm 48 2 7 42 48 74.9 61.6 29.27 61.6 609 4965 941 2.63 0.11 0.12 0.000
1:14pm 73 1 7 42 49 74.9 61.6 29.27 61.6 610 4832 942 2.59 0.11 0.12 0.000
1:15pm 45 1 7 42 49 74.9 61.6 29.27 61.6 610 4832 942 2.55 0.11 0.12 0.000
1:16pm 12 0 2 41 50 75.0 61.7 29.27 61.7 610 4702 949 2.60 0.11 0.12 0.000
1:17pm 358 4 4 42 49 74.9 61.8 29.26 61.8 611 4836 956 2.66 0.11 0.12 0.000
1:18pm 79 3 7 42 47 74.9 61.8 29.26 61.8 614 5106 960 2.61 0.11 0.12 0.000
1:19pm 81 0 7 42 48 74.9 61.8 29.26 61.8 617 4969 963 2.57 0.11 0.12 0.000
1:20pm 237 4 7 42 49 74.9 61.7 29.26 61.7 617 4834 957 2.43 0.11 0.12 0.000
1:21pm 236 3 4 42 49 74.9 61.7 29.26 61.7 620 4834 960 2.39 0.11 0.12 0.000
1:22pm 85 2 4 42 49 74.9 61.8 29.26 61.8 620 4836 967 2.45 0.11 0.12 0.000
1:23pm 323 3 4 42 51 74.9 61.9 29.26 61.9 620 4577 973 2.51 0.11 0.12 0.000
1:24pm 49 4 6 42 49 74.9 62.0 29.25 62.0 621 4840 982 2.57 0.11 0.12 0.000
1:25pm 32 2 8 42 50 74.9 62.1 29.26 62.1 621 4710 987 2.63 0.11 0.12 0.000
1:26pm 27 0 3 42 51 75.0 62.2 29.26 62.2 621 4583 994 2.68 0.11 0.12 0.000
1:27pm 327 4 4 42 55 74.9 62.2 29.26 62.2 621 4087 994 2.64 0.11 0.12 0.000
1:28pm 351 3 7 42 53 74.9 62.3 29.26 62.3 619 4333 998 2.69 0.11 0.12 0.000
1:29pm 7 2 7 43 50 74.9 62.2 29.26 62.2 620 4712 993 2.55 0.11 0.12 0.000
1:30pm 16 4 7 42 47 74.9 62.2 29.26 62.2 620 5114 993 2.51 0.11 0.12 0.000
1:31pm 354 1 8 42 47 75.0 62.1 29.26 62.1 621 5112 987 2.37 0.11 0.12 0.000
1:32pm 353 0 8 42 50 75.0 62.0 29.26 62.0 621 4708 981 2.23 0.11 0.12 0.000
1:33pm 3 2 8 42 50 75.0 61.9 29.25 61.9 621 4706 976 2.10 0.11 0.12 0.000
1:34pm 358 2 8 42 49 75.0 61.9 29.25 61.9 621 4838 976 2.06 0.11 0.12 0.000
1:35pm 23 0 8 41 50 75.0 61.9 29.26 61.9 621 4706 974 2.02 0.11 0.12 0.000
1:36pm 78 5 5 41 50 75.0 61.9 29.26 61.9 621 4706 974 1.99 0.11 0.12 0.000
1:37pm 83 2 5 42 49 75.0 62.0 29.25 62.0 622 4840 983 2.06 0.11 0.12 0.000
1:38pm 41 0 5 41 48 75.0 61.9 29.25 61.9 622 4971 977 1.93 0.11 0.12 0.000
1:39pm 39 1 5 42 48 75.0 62.0 29.25 62.0 622 4974 983 1.99 0.11 0.12 0.000
1:40pm 346 4 5 42 50 75.0 62.1 29.25 62.1 623 4710 991 2.06 0.11 0.12 0.000
1:41pm 347 0 4 42 49 75.0 62.2 29.25 62.2 623 4844 997 2.13 0.11 0.12 0.000
1:42pm 348 3 4 42 50 75.0 62.2 29.25 62.2 623 4712 997 2.09 0.11 0.12 0.000
1:43pm 347 3 4 42 48 75.0 62.2 29.25 62.2 622 4978 996 2.06 0.11 0.12 0.000
1:44pm 79 2 4 41 49 75.0 62.2 29.25 62.2 622 4844 996 2.02 0.11 0.12 0.000
1:45pm 6 7 9 41 50 75.0 62.3 29.26 62.0 621 4714 1000 2.09 0.11 0.12 0.000
1:46pm 69 5 7 42 50 75.0 62.3 29.25 62.3 622 4714 1003 2.05 0.11 0.12 0.000
1:47pm 28 7 8 41 48 75.0 62.3 29.25 62.0 621 4980 1002 2.02 0.11 0.12 0.000
1:48pm 347 4 10 42 47 75.0 62.1 29.25 62.1 622 5112 990 1.79 0.11 0.12 0.000
1:49pm 345 3 10 41 47 75.0 62.0 29.25 62.0 622 5110 983 1.66 0.11 0.12 0.000
1:50pm 2 5 10 42 49 75.0 62.0 29.25 62.0 622 4840 983 1.63 0.11 0.12 0.000
1:51pm 347 3 5 42 48 75.0 62.0 29.25 62.0 623 4974 984 1.60 0.11 0.12 0.000
1:52pm 347 0 5 41 49 75.0 61.9 29.25 61.9 623 4838 978 1.48 0.11 0.12 0.000
1:53pm 90 5 5 41 49 75.0 61.9 29.25 61.9 622 4838 977 1.45 0.11 0.12 0.000
1:54pm 351 3 10 42 49 75.0 62.0 29.25 62.0 622 4840 983 1.53 0.11 0.12 0.000
1:55pm 81 2 10 41 49 75.0 62.0 29.25 62.0 622 4840 983 1.50 0.11 0.12 0.000
1:56pm 52 4 4 41 50 75.0 62.1 29.25 62.1 622 4710 990 1.58 0.11 0.12 0.000
1:57pm 53 2 4 41 49 75.0 62.2 29.25 62.2 622 4844 996 1.65 0.11 0.12 0.000
1:58pm 79 2 4 42 48 75.0 62.3 29.25 62.3 622 4980 1003 1.72 0.11 0.12 0.000
1:59pm 61 2 4 42 49 75.0 62.4 29.25 62.4 622 4848 1009 1.79 0.11 0.12 0.000
2:00pm 19 0 4 41 48 75.0 62.6 29.25 62.6 623 4986 1023 1.96 0.11 0.12 0.000
2:01pm 38 3 3 41 50 75.0 62.7 29.25 62.7 623 4722 1030 2.03 0.11 0.12 0.000
2:02pm 81 2 5 42 48 75.0 62.8 29.25 62.8 623 4990 1036 2.09 0.11 0.12 0.000
2:03pm 81 3 5 41 46 75.0 62.9 29.25 62.9 623 5269 1043 2.16 0.11 0.12 0.000
2:04pm 81 9 9 42 47 75.0 62.9 29.25 62.2 624 5129 1044 2.12 0.11 0.12 0.000
2:05pm 81 4 9 42 45 75.0 62.7 29.25 62.7 624 5407 1031 1.89 0.11 0.12 0.000
2:06pm 76 2 5 42 47 75.0 62.4 29.25 62.4 624 5119 1011 1.56 0.11 0.12 0.000
2:07pm 77 4 5 41 49 75.0 62.3 29.25 62.3 624 4846 1005 1.43 0.11 0.12 0.000
2:08pm 16 3 5 42 48 75.0 62.2 29.25 62.2 624 4978 998 1.31 0.11 0.12 0.000
2:09pm 33 5 5 42 47 75.0 62.2 29.25 62.2 624 5114 998 1.29 0.11 0.12 0.000
2:10pm 6 3 5 42 50 75.0 62.2 29.25 62.2 623 4712 997 1.27 0.11 0.12 0.000
2:11pm 331 1 3 42 49 75.0 62.3 29.25 62.3 623 4846 1004 1.35 0.11 0.12 0.000
2:12pm 353 1 3 42 50 75.0 62.3 29.25 62.3 623 4714 1004 1.32 0.11 0.12 0.000
2:13pm 356 1 3 42 49 75.0 62.5 29.25 62.5 624 4850 1018 1.50 0.11 0.12 0.000
2:14pm 83 3 3 41 50 75.0 62.7 29.25 62.7 624 4722 1031 1.68 0.11 0.12 0.000
2:15pm 77 3 5 42 50 75.0 62.8 29.25 62.8 624 4724 1037 1.75 0.11 0.12 0.000
2:16pm 81 4 7 41 48 75.0 63.0 29.25 63.0 624 4995 1050 1.92 0.11 0.12 0.000
2:17pm 29 3 7 42 49 75.0 63.0 29.25 63.0 625 4860 1052 1.88 0.11 0.12 0.000
2:18pm 33 2 7 42 49 75.0 63.1 29.25 63.1 625 4862 1058 1.95 0.11 0.12 0.000
2:19pm 31 2 7 41 49 75.0 63.2 29.25 63.2 625 4864 1065 2.02 0.11 0.12 0.000
2:20pm 31 1 7 42 49 75.0 63.3 29.25 63.3 625 4866 1071 2.08 0.11 0.12 0.000
2:21pm 11 3 3 42 50 75.0 63.4 29.25 63.4 625 4736 1077 2.15 0.11 0.12 0.000
2:22pm 80 3 5 41 47 75.0 63.3 29.25 63.3 624 5138 1070 2.02 0.11 0.12 0.000
2:23pm 81 7 10 42 48 75.0 63.3 29.25 63.2 626 5001 1072 1.98 0.11 0.12 0.000
2:24pm 333 3 10 41 47 75.0 63.2 29.25 63.2 625 5136 1065 1.85 0.11 0.12 0.000
2:25pm 223 3 10 41 50 75.0 63.2 29.25 63.2 626 4732 1066 1.82 0.11 0.12 0.000
2:26pm 244 2 3 42 50 75.0 63.2 29.25 63.2 626 4732 1066 1.79 0.11 0.12 0.000
2:27pm 246 2 3 41 53 75.0 63.3 29.25 63.3 627 4351 1073 1.86 0.11 0.12 0.000
2:28pm 246 2 3 42 51 75.0 63.4 29.25 63.4 629 4606 1082 1.93 0.11 0.12 0.000
2:29pm 100 2 3 42 50 75.0 63.5 29.25 63.5 628 4738 1087 1.99 0.11 0.12 0.000
2:30pm 294 4 4 41 49 75.0 63.6 29.24 63.6 633 4872 1100 2.06 0.11 0.12 0.000
2:31pm 82 4 6 42 51 75.0 63.8 29.24 63.8 633 4614 1113 2.22 0.11 0.12 0.000
2:32pm 80 2 11 41 47 75.0 63.8 29.24 63.8 634 5149 1114 2.19 0.11 0.12 0.000
2:33pm 357 2 11 42 48 75.0 63.7 29.24 63.7 633 5009 1106 2.05 0.11 0.12 0.000
2:34pm 345 1 11 41 48 75.0 63.6 29.24 63.6 633 5007 1100 1.92 0.11 0.12 0.000
2:35pm 89 2 11 41 48 75.0 63.5 29.24 63.5 634 5005 1095 1.79 0.11 0.12 0.000
2:36pm 89 2 2 41 50 75.0 63.6 29.24 63.6 634 4740 1102 1.86 0.11 0.12 0.000
2:37pm 89 3 5 41 50 75.0 63.7 29.24 63.7 636 4742 1111 1.92 0.11 0.12 0.000
2:38pm 8 3 5 41 50 75.0 63.9 29.24 63.9 635 4746 1122 2.09 0.11 0.12 0.000
2:39pm 22 1 5 41 48 75.0 63.9 29.24 63.9 636 5014 1124 2.06 0.11 0.12 0.000
2:40pm 23 1 5 41 47 75.0 63.9 29.24 63.9 637 5151 1125 2.02 0.11 0.12 0.000
2:41pm 75 3 3 41 47 75.0 63.8 29.24 63.8 638 5149 1119 1.89 0.11 0.12 0.000
2:42pm 62 5 6 42 47 75.0 63.7 29.24 63.7 638 5147 1113 1.76 0.11 0.12 0.000
2:43pm 79 3 6 41 46 75.0 63.5 29.24 63.5 639 5282 1101 1.53 0.11 0.12 0.000
2:44pm 79 3 6 41 46 75.0 63.3 29.24 63.3 639 5278 1088 1.31 0.11 0.12 0.000
2:45pm 80 1 6 41 46 75.0 63.1 29.24 63.1 639 5273 1075 1.09 0.11 0.12 0.000
2:46pm 43 3 4 42 49 75.2 63.0 29.24 63.0 639 4860 1069 0.97 0.11 0.12 0.000
2:47pm 21 4 4 41 49 75.0 63.0 29.24 63.0 639 4860 1069 0.96 0.11 0.12 0.000
2:48pm 35 2 8 42 47 75.0 62.9 29.23 62.9 641 5129 1064 0.84 0.11 0.12 0.000
2:49pm 35 1 8 41 48 75.0 62.9 29.23 62.9 640 4992 1063 0.83 0.11 0.12 0.000
2:50pm 94 6 8 41 48 75.0 62.8 29.23 62.8 640 4990 1057 0.71 0.11 0.12 0.000
2:51pm 85 2 6 41 49 75.0 62.9 29.23 62.9 640 4858 1063 0.80 0.11 0.12 0.000
2:52pm 89 2 6 41 48 75.0 62.9 29.23 62.9 641 4992 1064 0.79 0.11 0.12 0.000
2:53pm 89 1 6 41 49 75.0 63.0 29.23 63.0 640 4860 1070 0.87 0.11 0.12 0.000
2:54pm 89 0 6 42 49 75.2 63.0 29.23 63.0 640 4860 1070 0.86 0.11 0.12 0.000
2:55pm 89 1 6 42 52 75.2 63.2 29.23 63.2 640 4475 1083 1.04 0.11 0.12 0.000
2:56pm 89 2 4 42 52 75.0 63.4 29.23 63.4 640 4478 1096 1.22 0.11 0.12 0.000
2:57pm 237 1 4 41 48 75.0 63.4 29.23 63.4 640 5003 1096 1.20 0.11 0.12 0.000
2:58pm 237 1 4 41 49 75.2 63.5 29.23 63.5 640 4870 1102 1.28 0.11 0.12 0.000
2:59pm 237 0 4 42 47 75.2 63.5 29.24 63.5 639 5142 1101 1.26 0.11 0.12 0.000
3:00pm 310 0 4 41 48 75.2 63.6 29.24 63.6 639 5007 1108 1.34 0.11 0.12 0.000
3:01pm 347 1 2 41 50 75.2 63.8 29.24 63.8 639 4744 1121 1.51 0.11 0.12 0.000
3:02pm 348 1 2 41 48 75.0 63.9 29.23 63.9 641 5014 1129 1.59 0.11 0.12 0.000
3:03pm 89 7 7 41 47 75.0 64.0 29.23 64.0 642 5153 1137 1.66 0.11 0.12 0.000
3:04pm 87 3 8 41 48 75.0 64.0 29.23 64.0 642 5016 1137 1.63 0.11 0.12 0.000
3:05pm 41 2 8 41 48 75.0 64.0 29.23 64.0 641 5016 1136 1.61 0.11 0.12 0.000
3:06pm 79 3 3 41 49 75.0 63.9 29.23 63.9 642 4879 1130 1.48 0.11 0.12 0.000
3:07pm 81 0 3 41 48 75.0 63.9 29.23 63.9 641 5014 1129 1.46 0.11 0.12 0.000
3:08pm 81 2 3 41 48 75.0 64.0 29.23 64.0 642 5016 1137 1.53 0.11 0.12 0.000
3:09pm 81 2 3 41 49 75.0 64.1 29.23 64.1 642 4883 1143 1.60 0.11 0.12 0.000
3:10pm 226 2 3 41 48 75.0 64.3 29.23 64.3 644 5022 1159 1.78 0.11 0.12 0.000
3:11pm 71 2 3 41 48 74.9 64.3 29.23 64.3 645 5022 1160 1.75 0.11 0.12 0.000
3:12pm 76 1 3 41 49 74.9 64.5 29.23 64.5 645 4891 1173 1.92 0.11 0.12 0.000
3:13pm 71 2 3 42 49 74.9 64.5 29.23 64.5 645 4891 1173 1.88 0.11 0.12 0.000
3:14pm 80 2 3 41 50 74.9 64.7 29.23 64.7 647 4762 1189 2.05 0.11 0.12 0.000
3:15pm 265 1 3 41 49 74.9 64.9 29.23 64.9 647 4899 1202 2.21 0.11 0.12 0.000
3:16pm 88 3 3 41 47 74.9 65.0 29.22 65.0 650 5175 1212 2.28 0.11 0.12 0.000
3:17pm 19 4 6 41 47 74.7 65.0 29.22 65.0 651 5175 1213 2.24 0.11 0.12 0.000
3:18pm 75 1 6 41 46 74.7 65.0 29.22 65.0 649 5315 1211 2.20 0.11 0.12 0.000
3:19pm 69 1 6 41 47 74.7 65.0 29.23 65.0 648 5175 1209 2.16 0.11 0.12 0.000
3:20pm 35 1 6 41 47 74.7 65.0 29.23 65.0 648 5175 1209 2.13 0.11 0.12 0.000
3:21pm 35 0 1 41 50 74.7 64.9 29.22 64.9 649 4766 1204 2.00 0.11 0.12 0.000
3:22pm 347 3 3 41 50 74.7 64.9 29.22 64.9 649 4766 1204 1.97 0.11 0.12 0.000
3:23pm 4 1 4 41 48 74.7 64.9 29.22 64.9 651 5035 1206 1.93 0.11 0.12 0.000
3:24pm 337 3 4 41 48 74.7 64.9 29.22 64.9 652 5035 1208 1.90 0.11 0.12 0.000
3:25pm 48 1 6 41 47 74.7 64.9 29.22 64.9 652 5173 1208 1.87 0.11 0.12 0.000
3:26pm 47 5 7 41 46 74.7 64.7 29.22 64.7 651 5309 1194 1.64 0.11 0.12 0.000
3:27pm 80 3 8 41 45 74.7 64.6 29.22 64.6 652 5450 1188 1.51 0.11 0.12 0.000
3:28pm 77 2 8 41 48 74.7 64.4 29.22 64.4 652 5024 1175 1.29 0.11 0.12 0.000
3:29pm 58 1 8 41 48 74.7 64.2 29.22 64.2 652 5020 1162 1.07 0.11 0.12 0.000
3:30pm 76 1 8 41 47 74.7 64.1 29.22 64.1 652 5155 1156 0.95 0.11 0.12 0.000
3:31pm 46 1 2 41 47 74.7 64.1 29.22 64.1 652 5155 1156 0.94 0.11 0.12 0.000
3:32pm 43 1 3 41 48 74.7 64.1 29.22 64.1 652 5018 1156 0.92 0.11 0.12 0.000
3:33pm 360 3 4 41 48 74.7 64.1 29.22 64.1 652 5018 1156 0.91 0.11 0.12 0.000
3:34pm 3 5 5 41 48 74.7 64.0 29.22 64.0 652 5016 1149 0.79 0.11 0.12 0.000
3:35pm 20 3 5 41 47 74.7 64.0 29.22 64.0 652 5153 1149 0.78 0.11 0.12 0.000
3:36pm 22 3 5 41 47 74.7 63.9 29.22 63.9 652 5151 1143 0.67 0.11 0.12 0.000
3:37pm 21 1 5 41 46 74.7 63.8 29.22 63.8 653 5289 1138 0.56 0.11 0.12 0.000
3:38pm 7 2 5 41 46 74.7 63.7 29.22 63.7 653 5287 1131 0.45 0.11 0.12 0.000
3:39pm 310 0 5 41 47 74.7 63.6 29.22 63.6 653 5145 1125 0.34 0.11 0.12 0.000
3:40pm 81 4 5 41 49 74.7 63.6 29.22 63.6 653 4872 1125 0.34 0.11 0.12 0.000
3:41pm 73 7 7 41 47 74.7 63.5 29.22 63.5 654 5142 1119 0.23 0.11 0.12 0.000
3:42pm 80 5 7 41 46 74.7 63.3 29.22 63.3 654 5278 1106 0.03 0.11 0.12 0.000
3:43pm 78 3 7 41 47 74.7 63.0 29.22 63.0 654 5132 1087 -0.27 0.11 0.12 0.000
3:44pm 78 4 7 41 49 74.7 62.9 29.22 62.9 655 4858 1082 -0.36 0.11 0.12 0.000
3:45pm 79 4 7 41 48 74.7 62.7 29.22 62.7 656 4988 1070 -0.55 0.11 0.12 0.000
3:46pm 79 2 5 43 47 74.7 62.6 29.22 62.6 656 5123 1063 -0.64 0.11 0.12 0.000
3:47pm 79 3 5 41 47 74.5 62.4 29.22 62.4 658 5119 1053 -0.83 0.11 0.12 0.000
3:48pm 75 0 5 41 47 74.5 62.3 29.21 62.3 659 5116 1047 -0.92 0.11 0.12 0.000
3:49pm 76 1 5 41 48 74.5 62.2 29.21 62.2 659 4978 1041 -1.00 0.11 0.12 0.000
3:50pm 77 1 5 41 48 74.5 62.2 29.22 62.2 658 4978 1040 -0.98 0.11 0.12 0.000
3:51pm 78 1 2 41 49 74.5 62.4 29.21 62.4 659 4848 1054 -0.77 0.11 0.12 0.000
3:52pm 71 1 2 41 50 74.5 62.5 29.21 62.5 659 4718 1060 -0.66 0.11 0.12 0.000
3:53pm 72 4 4 41 49 74.5 62.7 29.21 62.7 660 4854 1075 -0.45 0.11 0.12 0.000
3:54pm 44 3 5 41 47 74.3 62.9 29.21 62.9 661 5129 1090 -0.24 0.11 0.12 0.000
3:55pm 80 3 5 41 46 74.3 63.0 29.21 63.0 661 5271 1096 -0.14 0.11 0.12 0.000
3:56pm 80 1 3 41 46 74.3 62.9 29.21 62.9 662 5269 1091 -0.24 0.11 0.12 0.000
3:57pm 80 0 3 41 47 74.3 63.0 29.21 63.0 664 5132 1099 -0.13 0.11 0.12 0.000
3:58pm 80 0 3 41 48 74.3 63.1 29.21 63.1 665 4997 1107 -0.03 0.11 0.12 0.000
3:59pm 80 1 3 41 48 74.2 63.3 29.21 63.3 666 5001 1121 0.17 0.11 0.12 0.000
4:00pm 80 1 3 41 47 74.2 63.6 29.21 63.6 666 5145 1141 0.46 0.11 0.12 0.000
4:01pm 80 1 2 41 47 74.2 63.8 29.21 63.8 666 5149 1154 0.65 0.11 0.12 0.000
4:02pm 80 2 2 41 46 74.2 64.0 29.21 64.0 665 5293 1165 0.84 0.11 0.12 0.000
4:03pm 64 4 4 41 46 74.2 64.1 29.21 64.1 664 5296 1171 0.92 0.11 0.12 0.000
4:04pm 339 3 9 41 47 74.2 64.3 29.21 64.3 661 5160 1180 1.11 0.11 0.12 0.000
4:05pm 354 3 9 41 47 74.2 64.3 29.21 64.3 661 5160 1180 1.09 0.11 0.12 0.000
4:06pm 14 2 4 41 47 74.2 64.4 29.21 64.4 662 5162 1188 1.17 0.11 0.12 0.000
4:07pm 38 6 6 41 46 74.0 64.4 29.21 64.4 662 5302 1188 1.15 0.11 0.12 0.000
4:08pm 79 2 6 41 46 74.0 64.4 29.21 64.4 663 5302 1189 1.13 0.11 0.12 0.000
4:09pm 81 1 7 41 45 74.0 64.3 29.21 64.3 666 5443 1186 1.01 0.11 0.12 0.000
4:10pm 81 4 7 41 46 74.0 64.2 29.21 64.2 666 5298 1179 0.90 0.11 0.12 0.000
4:11pm 8 4 7 41 46 74.0 64.1 29.21 64.1 667 5296 1174 0.78 0.11 0.12 0.000
4:12pm 83 2 7 41 47 74.0 64.1 29.21 64.1 666 5155 1173 0.77 0.11 0.12 0.000
4:13pm 83 1 7 41 50 74.0 64.1 29.21 64.1 667 4750 1174 0.76 0.11 0.12 0.000
4:14pm 83 1 7 41 50 74.0 64.2 29.21 64.2 667 4752 1181 0.84 0.11 0.12 0.000
4:15pm 83 1 7 41 48 74.0 64.3 29.21 64.3 667 5022 1187 0.93 0.11 0.12 0.000
4:16pm 243 2 3 41 48 74.0 64.5 29.21 64.5 667 5026 1200 1.11 0.11 0.12 0.000
4:17pm 244 2 3 43 45 74.0 64.7 29.21 64.7 667 5452 1213 1.29 0.11 0.12 0.000
4:18pm 244 0 3 41 44 74.0 64.6 29.21 64.6 667 5596 1206 1.17 0.11 0.12 0.000
4:19pm 244 0 3 41 46 74.0 64.7 29.20 64.7 668 5309 1214 1.25 0.11 0.12 0.000
4:20pm 176 1 3 41 46 74.0 64.8 29.20 64.8 668 5311 1220 1.33 0.11 0.12 0.000
4:21pm 165 0 3 41 47 74.0 64.9 29.20 64.9 668 5173 1227 1.41 0.11 0.12 0.000
4:22pm 94 2 3 41 46 74.0 64.9 29.20 64.9 668 5313 1227 1.38 0.11 0.12 0.000
4:23pm 94 2 3 41 44 74.0 65.1 29.20 65.1 668 5608 1240 1.56 0.11 0.12 0.000
4:24pm 94 2 3 41 46 74.0 65.1 29.20 65.1 668 5318 1240 1.53 0.11 0.12 0.000
4:25pm 73 3 9 41 44 74.0 65.1 29.20 65.1 669 5608 1241 1.51 0.11 0.12 0.000
4:26pm 80 6 6 41 44 74.0 64.9 29.20 64.9 668 5603 1227 1.28 0.11 0.12 0.000
4:27pm 80 2 6 41 43 73.8 64.7 29.20 64.7 668 5747 1214 1.06 0.11 0.12 0.000
4:28pm 80 1 6 41 44 73.8 64.5 29.20 64.5 668 5594 1201 0.85 0.11 0.12 0.000
4:29pm 80 3 6 41 45 73.8 64.5 29.20 64.5 668 5448 1201 0.83 0.11 0.12 0.000
4:30pm 80 1 6 41 45 73.8 64.4 29.20 64.4 668 5445 1195 0.72 0.11 0.12 0.000
4:31pm 80 0 1 41 48 73.8 64.3 29.20 64.3 668 5022 1188 0.61 0.11 0.12 0.000
4:32pm 80 2 2 41 46 73.8 64.4 29.20 64.4 668 5302 1195 0.70 0.11 0.12 0.000
4:33pm 80 3 3 41 45 73.6 64.5 29.20 64.5 668 5448 1201 0.78 0.11 0.12 0.000
4:34pm 80 4 4 41 45 73.6 64.6 29.20 64.6 668 5450 1208 0.87 0.11 0.12 0.000
4:35pm 80 0 4 41 44 73.6 64.6 29.20 64.6 668 5596 1208 0.86 0.11 0.12 0.000
4:36pm 80 0 1 41 44 73.6 64.6 29.21 64.6 667 5596 1206 0.84 0.11 0.12 0.000
4:37pm 80 3 3 41 43 73.6 64.8 29.21 64.8 667 5750 1219 1.03 0.11 0.12 0.000
4:38pm 44 3 3 41 44 73.6 64.7 29.21 64.7 667 5598 1213 0.91 0.11 0.12 0.000
4:39pm 79 3 5 41 44 73.5 64.8 29.21 64.8 667 5601 1219 1.00 0.11 0.12 0.000
4:40pm 100 4 7 41 43 73.5 64.8 29.21 64.8 667 5750 1219 0.98 0.11 0.12 0.000
4:41pm 92 4 7 41 42 73.5 64.6 29.21 64.6 667 5897 1206 0.76 0.11 0.12 0.000
4:42pm 91 3 7 41 43 73.5 64.5 29.21 64.5 666 5742 1199 0.65 0.11 0.12 0.000
4:43pm 91 4 7 41 45 73.5 64.5 29.21 64.5 665 5448 1198 0.64 0.11 0.12 0.000
4:44pm 91 4 7 41 44 73.5 64.5 29.21 64.5 665 5594 1198 0.63 0.11 0.12 0.000
4:45pm 92 2 7 41 43 73.5 64.5 29.21 64.5 665 5742 1198 0.62 0.11 0.12 0.000
4:46pm 92 0 3 41 42 73.5 64.4 29.21 64.4 665 5892 1191 0.51 0.11 0.12 0.000
4:47pm 92 1 3 41 42 73.5 64.3 29.21 64.3 665 5890 1185 0.40 0.11 0.12 0.000
4:48pm 92 0 3 41 43 73.5 64.3 29.21 64.3 666 5738 1186 0.40 0.11 0.12 0.000
4:49pm 92 0 3 41 43 73.5 64.2 29.21 64.2 666 5735 1179 0.29 0.11 0.12 0.000
4:50pm 80 3 3 41 43 73.5 64.2 29.21 64.2 666 5735 1179 0.29 0.11 0.12 0.000
4:51pm 300 1 3 41 44 73.5 64.3 29.21 64.3 665 5589 1185 0.38 0.11 0.12 0.000
4:52pm 300 2 3 41 44 73.5 64.3 29.21 64.3 666 5589 1186 0.37 0.11 0.12 0.000
4:53pm 196 2 3 41 48 73.5 64.3 29.21 64.3 666 5022 1186 0.37 0.11 0.12 0.000
4:54pm 191 0 3 41 44 73.5 64.3 29.21 64.3 667 5589 1187 0.36 0.11 0.12 0.000
4:55pm 191 0 3 41 46 73.5 64.3 29.21 64.3 666 5300 1186 0.36 0.11 0.12 0.000
4:56pm 191 2 2 41 48 73.5 64.4 29.21 64.4 666 5024 1192 0.45 0.11 0.12 0.000
4:57pm 254 5 6 41 46 73.5 64.5 29.21 64.5 665 5304 1198 0.54 0.11 0.12 0.000
4:58pm 283 0 6 41 43 73.5 64.5 29.21 64.5 664 5742 1197 0.53 0.11 0.12 0.000
4:59pm 343 3 6 41 43 73.5 64.5 29.21 64.5 662 5742 1194 0.52 0.11 0.12 0.000
5:00pm 347 2 6 41 43 73.5 64.5 29.21 64.5 662 5742 1194 0.51 0.11 0.12 0.000
5:01pm 347 2 2 41 43 73.5 64.5 29.21 64.5 660 5742 1192 0.51 0.11 0.12 0.000
5:02pm 349 1 2 41 43 73.5 64.5 29.21 64.5 659 5742 1191 0.50 0.11 0.12 0.000
5:03pm 349 1 2 41 43 73.5 64.5 29.21 64.5 659 5742 1190 0.49 0.11 0.12 0.000
5:04pm 349 2 2 41 44 73.5 64.5 29.21 64.5 659 5594 1190 0.48 0.11 0.12 0.000
5:05pm 349 2 3 41 45 73.5 64.5 29.22 64.5 657 5448 1187 0.47 0.11 0.12 0.000
5:06pm 171 1 3 41 44 73.5 64.5 29.22 64.5 658 5594 1189 0.47 0.11 0.12 0.000
5:07pm 318 3 4 41 45 73.5 64.5 29.22 64.5 657 5448 1187 0.46 0.11 0.12 0.000
5:08pm 310 2 4 41 45 73.5 64.5 29.22 64.5 657 5448 1187 0.45 0.11 0.12 0.000
5:09pm 342 2 4 41 48 73.6 64.6 29.22 64.6 656 5028 1193 0.54 0.11 0.12 0.000
5:10pm 300 2 4 41 47 73.6 64.5 29.22 64.5 655 5164 1185 0.44 0.11 0.12 0.000
5:11pm 14 3 4 41 49 73.6 64.5 29.22 64.5 655 4891 1185 0.43 0.11 0.12 0.000
5:12pm 16 1 4 41 44 73.6 64.5 29.22 64.5 655 5594 1185 0.42 0.11 0.12 0.000
5:13pm 16 0 4 41 45 73.6 64.5 29.22 64.5 656 5448 1186 0.41 0.11 0.12 0.000
5:14pm 16 0 4 41 45 73.6 64.5 29.22 64.5 657 5448 1187 0.41 0.11 0.12 0.000
5:15pm 122 3 4 41 44 73.5 64.5 29.21 64.5 659 5594 1190 0.40 0.11 0.12 0.000
5:16pm 123 1 3 41 44 73.5 64.5 29.21 64.5 661 5594 1193 0.39 0.11 0.12 0.000
5:17pm 123 0 3 41 44 73.5 64.5 29.21 64.5 663 5594 1195 0.39 0.11 0.12 0.000
5:18pm 123 1 3 41 44 73.5 64.5 29.21 64.5 665 5594 1198 0.38 0.11 0.12 0.000
5:19pm 95 1 3 41 44 73.5 64.6 29.21 64.6 666 5596 1205 0.47 0.11 0.12 0.000
5:20pm 95 0 3 41 44 73.5 64.7 29.21 64.7 666 5598 1212 0.56 0.11 0.12 0.000
5:21pm 95 0 1 41 45 73.5 64.9 29.21 64.9 666 5457 1225 0.75 0.11 0.12 0.000
5:22pm 95 2 2 41 45 73.5 64.9 29.21 64.9 666 5457 1225 0.74 0.11 0.12 0.000
5:23pm 95 2 3 41 45 73.3 65.0 29.21 65.0 666 5459 1231 0.83 0.11 0.12 0.000
5:24pm 95 1 3 41 44 73.3 64.9 29.21 64.9 666 5603 1225 0.71 0.11 0.12 0.000
5:25pm 95 0 3 41 45 73.3 65.0 29.21 65.0 666 5459 1231 0.80 0.11 0.12 0.000
5:26pm 95 0 2 41 45 73.3 65.0 29.21 65.0 665 5459 1230 0.79 0.11 0.12 0.000
5:27pm 95 1 2 41 44 73.3 65.1 29.21 65.1 666 5608 1238 0.87 0.11 0.12 0.000
5:28pm 95 1 3 41 44 73.3 65.0 29.21 65.0 666 5605 1231 0.76 0.11 0.12 0.000
5:29pm 95 2 3 41 44 73.1 65.0 29.21 65.0 666 5605 1231 0.75 0.11 0.12 0.000
5:30pm 208 1 4 41 43 73.1 65.0 29.21 65.0 666 5754 1231 0.73 0.11 0.12 0.000
5:31pm 208 2 3 41 43 73.1 64.9 29.21 64.9 665 5752 1224 0.62 0.11 0.12 0.000
5:32pm 208 1 3 41 45 73.1 64.9 29.21 64.9 666 5457 1225 0.61 0.11 0.12 0.000
5:33pm 208 0 3 41 45 73.1 64.9 29.21 64.9 665 5457 1224 0.60 0.11 0.12 0.000
5:34pm 83 3 4 41 47 73.1 64.9 29.21 64.9 665 5173 1224 0.59 0.11 0.12 0.000
5:35pm 83 3 4 41 43 73.1 64.9 29.21 64.9 666 5752 1225 0.58 0.11 0.12 0.000
5:36pm 83 1 3 41 43 73.1 64.9 29.21 64.9 666 5752 1225 0.57 0.11 0.12 0.000
5:37pm 83 1 3 41 44 73.1 64.8 29.21 64.8 667 5601 1219 0.47 0.11 0.12 0.000
5:38pm 83 1 3 41 44 73.1 64.8 29.21 64.8 667 5601 1219 0.46 0.11 0.12 0.000
5:39pm 83 1 3 41 44 73.1 64.9 29.21 64.9 667 5603 1226 0.55 0.11 0.12 0.000
5:40pm 83 2 3 41 45 73.1 64.9 29.21 64.9 667 5457 1226 0.54 0.11 0.12 0.000
5:41pm 83 0 2 41 46 73.1 64.8 29.21 64.8 667 5311 1219 0.43 0.11 0.12 0.000
5:42pm 83 0 2 41 47 73.1 64.9 29.21 64.9 667 5173 1226 0.53 0.11 0.12 0.000
5:43pm 83 0 2 41 47 73.1 64.8 29.21 64.8 667 5170 1219 0.42 0.11 0.12 0.000
5:44pm 86 1 5 41 45 73.1 64.8 29.21 64.8 667 5454 1219 0.41 0.11 0.12 0.000
5:45pm 86 2 5 41 44 73.1 64.8 29.21 64.8 666 5601 1218 0.40 0.11 0.12 0.000
5:46pm 86 3 4 41 45 73.1 64.7 29.21 64.7 667 5452 1213 0.30 0.11 0.12 0.000
5:47pm 86 3 4 41 44 73.1 64.6 29.21 64.6 667 5596 1206 0.19 0.11 0.12 0.000
5:48pm 86 4 4 41 44 73.1 64.5 29.21 64.5 667 5594 1200 0.09 0.11 0.12 0.000
5:49pm 86 1 4 41 44 73.1 64.5 29.21 64.5 666 5594 1199 0.09 0.11 0.12 0.000
5:50pm 86 1 4 41 44 73.1 64.4 29.21 64.4 667 5591 1194 -0.01 0.11 0.12 0.000
5:51pm 86 1 2 41 43 73.1 64.3 29.21 64.3 666 5738 1186 -0.11 0.11 0.12 0.000
5:52pm 86 2 3 41 43 73.1 64.3 29.21 64.3 667 5738 1187 -0.11 0.11 0.12 0.000
5:53pm 86 0 3 41 44 73.3 64.2 29.21 64.2 667 5586 1181 -0.21 0.11 0.12 0.000
5:54pm 86 0 3 41 44 73.3 64.1 29.21 64.1 667 5584 1174 -0.30 0.11 0.12 0.000
5:55pm 86 3 3 41 44 73.3 64.1 29.21 64.1 667 5584 1174 -0.30 0.11 0.12 0.000
5:56pm 86 0 3 41 43 73.3 64.0 29.20 64.0 668 5730 1169 -0.39 0.11 0.12 0.000
5:57pm 86 1 3 41 44 73.3 64.0 29.20 64.0 668 5582 1169 -0.38 0.11 0.12 0.000
5:58pm 86 1 3 41 44 73.3 63.9 29.20 63.9 668 5579 1162 -0.48 0.11 0.12 0.000
5:59pm 86 3 4 41 45 73.3 63.8 29.20 63.8 669 5432 1157 -0.57 0.11 0.12 0.000
6:00pm 86 4 4 41 44 73.3 63.7 29.20 63.7 669 5575 1151 -0.66 0.11 0.12 0.000
6:01pm 86 0 4 41 44 73.3 63.7 29.20 63.7 669 5575 1151 -0.65 0.11 0.12 0.000
6:02pm 86 1 4 41 46 73.3 63.6 29.20 63.6 668 5284 1143 -0.74 0.11 0.12 0.000
6:03pm 86 1 4 42 46 73.3 63.6 29.20 63.6 668 5284 1143 -0.72 0.11 0.12 0.000
6:04pm 86 1 4 41 47 73.3 63.5 29.20 63.5 668 5142 1136 -0.81 0.11 0.12 0.000
6:05pm 86 3 4 41 46 73.3 63.5 29.20 63.5 668 5282 1136 -0.80 0.11 0.12 0.000
6:06pm 86 1 5 41 45 73.3 63.4 29.20 63.4 668 5422 1130 -0.88 0.11 0.12 0.000
6:07pm 86 0 5 41 48 73.3 63.4 29.20 63.4 668 5003 1130 -0.87 0.11 0.12 0.000
6:08pm 86 0 5 41 48 73.3 63.3 29.20 63.3 668 5001 1123 -0.96 0.11 0.12 0.000
6:09pm 86 1 5 41 49 73.3 63.3 29.21 63.3 667 4866 1122 -0.94 0.11 0.12 0.000
6:10pm 86 0 5 41 47 73.3 63.3 29.21 63.3 667 5138 1122 -0.92 0.11 0.12 0.000
6:11pm 86 2 2 41 46 73.3 63.2 29.20 63.2 668 5276 1117 -1.01 0.11 0.12 0.000
6:12pm 86 0 2 41 44 73.3 63.1 29.20 63.1 668 5561 1110 -1.09 0.11 0.12 0.000
6:13pm 86 0 2 41 45 73.3 63.1 29.20 63.1 668 5416 1110 -1.07 0.11 0.12 0.000
6:14pm 86 0 2 41 44 73.3 63.1 29.20 63.1 668 5561 1110 -1.05 0.11 0.12 0.000
6:15pm 86 0 2 41 44 73.3 63.0 29.20 63.0 668 5558 1104 -1.13 0.11 0.12 0.000
6:16pm 86 0 1 41 46 73.3 63.0 29.20 63.0 668 5271 1104 -1.12 0.11 0.12 0.000
6:17pm 86 0 1 41 46 73.3 63.0 29.20 63.0 668 5271 1104 -1.10 0.11 0.12 0.000
6:18pm 86 0 1 41 45 73.3 62.9 29.20 62.9 668 5411 1098 -1.18 0.11 0.12 0.000
6:19pm 86 3 3 41 46 73.3 62.9 29.20 62.9 668 5269 1098 -1.16 0.11 0.12 0.000
6:20pm 86 1 3 41 45 73.3 62.9 29.20 62.9 668 5411 1098 -1.14 0.11 0.12 0.000
6:21pm 86 0 2 41 46 73.3 62.9 29.21 62.9 667 5269 1096 -1.12 0.11 0.12 0.000
6:22pm 86 0 2 43 44 73.3 62.9 29.21 62.9 667 5556 1096 -1.10 0.11 0.12 0.000
6:23pm 86 1 2 41 45 73.3 62.9 29.21 62.9 667 5411 1096 -1.08 0.11 0.12 0.000
6:24pm 86 0 2 41 45 73.3 62.9 29.21 62.9 667 5411 1096 -1.07 0.11 0.12 0.000
6:25pm 86 0 2 41 47 73.3 62.9 29.21 62.9 667 5129 1096 -1.05 0.11 0.12 0.000
6:26pm 86 0 0 41 47 73.3 62.9 29.21 62.9 667 5129 1096 -1.03 0.11 0.12 0.000
6:27pm 86 0 0 41 47 73.3 62.9 29.21 62.9 667 5129 1096 -1.01 0.11 0.12 0.000
6:28pm 86 0 1 41 45 73.3 62.8 29.21 62.8 667 5409 1090 -1.09 0.11 0.12 0.000
6:29pm 86 0 1 41 45 73.3 62.8 29.20 62.8 668 5409 1091 -1.08 0.11 0.12 0.000
6:30pm 86 0 1 41 46 73.3 62.8 29.20 62.8 668 5267 1091 -1.06 0.11 0.12 0.000
6:31pm 86 0 0 41 46 73.3 62.8 29.20 62.8 668 5267 1091 -1.04 0.11 0.12 0.000
6:32pm 86 0 0 41 45 73.5 62.7 29.20 62.7 668 5407 1085 -1.12 0.11 0.12 0.000
6:33pm 86 0 0 41 45 73.5 62.8 29.20 62.8 668 5409 1091 -1.01 0.11 0.12 0.000
6:34pm 86 0 0 41 46 73.5 62.7 29.20 62.7 668 5264 1085 -1.09 0.11 0.12 0.000
6:35pm 86 0 0 41 46 73.5 62.7 29.20 62.7 668 5264 1085 -1.07 0.11 0.12 0.000
6:36pm 86 2 3 41 46 73.5 62.7 29.20 62.7 668 5264 1085 -1.05 0.11 0.12 0.000
6:37pm 86 2 4 41 49 73.5 62.7 29.20 62.7 668 4854 1085 -1.04 0.11 0.12 0.000
6:38pm 196 2 4 41 51 73.5 62.7 29.21 62.7 667 4592 1083 -1.02 0.11 0.12 0.000
6:39pm 196 4 4 41 53 73.5 62.5 29.21 62.5 667 4336 1070 -1.20 0.11 0.12 0.000
6:40pm 196 2 4 41 54 73.5 62.4 29.21 62.4 667 4211 1064 -1.28 0.11 0.12 0.000
6:41pm 168 1 4 41 55 73.5 62.3 29.21 62.3 667 4089 1057 -1.36 0.11 0.12 0.000
6:42pm 152 1 4 41 55 73.5 62.2 29.21 62.2 667 4087 1051 -1.43 0.11 0.12 0.000
6:43pm 152 0 4 41 55 73.5 62.1 29.21 62.1 667 4085 1044 -1.51 0.11 0.12 0.000
6:44pm 153 3 4 41 56 73.5 62.0 29.21 62.0 666 3965 1037 -1.58 0.11 0.12 0.000
6:45pm 160 2 4 41 57 73.5 62.0 29.21 62.0 666 3848 1037 -1.56 0.11 0.12 0.000
6:46pm 101 4 4 41 57 73.5 61.8 29.21 61.8 666 3844 1024 -1.73 0.11 0.12 0.000
6:47pm 127 3 6 41 58 73.5 61.8 29.21 61.8 665 3729 1023 -1.70 0.11 0.12 0.000
6:48pm 186 3 7 41 58 73.5 61.7 29.21 61.7 664 3728 1015 -1.77 0.11 0.12 0.000
6:49pm 172 6 7 41 58 73.5 61.5 29.21 61.4 664 3724 1002 -1.94 0.11 0.12 0.000
6:50pm 145 5 7 41 59 73.5 61.4 29.21 61.4 664 3610 995 -2.01 0.11 0.12 0.000
6:51pm 189 6 8 41 59 73.5 61.3 29.21 61.1 663 3608 988 -2.08 0.11 0.12 0.000
6:52pm 176 2 8 41 59 73.5 61.2 29.21 61.2 660 3607 978 -2.14 0.11 0.12 0.000
6:53pm 161 3 8 41 59 73.5 61.1 29.21 61.1 660 3605 971 -2.20 0.11 0.12 0.000
6:54pm 139 3 8 41 60 73.5 60.9 29.21 60.9 659 3491 957 -2.37 0.11 0.12 0.000
6:55pm 145 2 8 41 60 73.5 60.9 29.21 60.9 659 3491 957 -2.33 0.11 0.12 0.000
6:56pm 199 6 6 41 60 73.5 60.8 29.21 60.5 660 3489 952 -2.39 0.11 0.12 0.000
6:57pm 183 2 6 41 60 73.5 60.7 29.21 60.7 659 3488 944 -2.45 0.11 0.12 0.000
6:58pm 175 3 6 41 60 73.5 60.6 29.21 60.6 659 3486 938 -2.50 0.11 0.12 0.000
6:59pm 175 0 6 41 61 73.5 60.5 29.22 60.5 658 3375 929 -2.56 0.11 0.12 0.000
7:00pm 167 6 8 41 62 73.5 60.5 29.22 60.2 657 3267 928 -2.52 0.11 0.12 0.000
7:01pm 154 6 7 41 61 73.5 60.4 29.22 60.1 658 3374 922 -2.58 0.11 0.12 0.000
7:02pm 180 3 7 41 61 73.5 60.3 29.21 60.3 659 3372 917 -2.63 0.11 0.12 0.000
7:03pm 181 2 7 41 62 73.5 60.2 29.21 60.2 659 3263 910 -2.69 0.11 0.12 0.000
7:04pm 231 5 7 41 61 73.5 60.1 29.21 60.1 659 3369 904 -2.73 0.11 0.12 0.000
7:05pm 186 3 7 41 61 73.5 60.1 29.21 60.1 659 3369 904 -2.69 0.11 0.12 0.000
7:06pm 197 2 5 41 62 73.5 60.0 29.21 60.0 659 3260 897 -2.75 0.11 0.12 0.000
7:07pm 197 2 5 41 62 73.5 59.9 29.21 59.9 659 3259 891 -2.80 0.11 0.12 0.000
7:08pm 195 2 5 41 63 73.6 59.9 29.21 59.9 659 3153 892 -2.76 0.11 0.12 0.000
7:09pm 195 2 5 41 63 73.6 59.8 29.21 59.8 659 3152 884 -2.81 0.11 0.12 0.000
7:10pm 195 3 5 41 63 73.6 59.8 29.21 59.8 659 3152 885 -2.77 0.11 0.12 0.000
7:11pm 195 0 3 41 63 73.6 59.7 29.21 59.7 659 3150 879 -2.82 0.11 0.12 0.000
7:12pm 192 3 4 41 63 73.6 59.6 29.22 59.6 658 3149 870 -2.87 0.11 0.12 0.000
7:13pm 289 0 4 41 63 73.6 59.6 29.22 59.6 658 3149 870 -2.82 0.11 0.12 0.000
7:14pm 289 0 4 41 63 73.6 59.5 29.22 59.5 658 3147 863 -2.88 0.11 0.12 0.000
7:15pm 289 0 4 41 64 73.6 59.4 29.22 59.4 658 3042 857 -2.93 0.11 0.12 0.000
7:16pm 283 1 2 41 64 73.6 59.4 29.22 59.4 657 3042 856 -2.88 0.11 0.12 0.000
7:17pm 193 3 3 41 65 73.6 59.3 29.22 59.3 657 2937 849 -2.93 0.11 0.12 0.000
7:18pm 193 2 3 41 65 73.6 59.3 29.22 59.3 657 2937 849 -2.88 0.11 0.12 0.000
7:19pm 138 2 6 41 64 73.6 59.2 29.22 59.2 656 3039 842 -2.94 0.11 0.12 0.000
7:20pm 219 0 6 41 64 73.6 59.1 29.22 59.1 655 3038 834 -2.98 0.11 0.12 0.000
7:21pm 249 2 3 41 65 73.6 59.1 29.22 59.1 654 2935 833 -2.93 0.11 0.12 0.000
7:22pm 158 2 3 41 65 73.6 58.9 29.22 58.9 655 2932 821 -3.08 0.11 0.12 0.000
7:23pm 138 4 6 41 65 73.6 58.8 29.22 58.8 654 2931 813 -3.13 0.11 0.12 0.000
7:24pm 139 0 6 41 65 73.6 58.8 29.22 58.8 654 2931 813 -3.08 0.11 0.12 0.000
7:25pm 180 4 6 41 65 73.6 58.7 29.22 58.7 654 2930 807 -3.13 0.11 0.12 0.000
7:26pm 181 4 4 41 65 73.6 58.7 29.22 58.7 654 2930 807 -3.08 0.11 0.12 0.000
7:27pm 183 4 5 41 66 73.6 58.5 29.22 58.5 654 2826 793 -3.23 0.11 0.12 0.000
7:28pm 177 4 5 41 66 73.6 58.4 29.22 58.4 654 2825 787 -3.27 0.11 0.12 0.000
7:29pm 177 2 5 41 66 73.6 58.3 29.22 58.3 653 2824 779 -3.32 0.11 0.12 0.000
7:30pm 185 1 5 41 66 73.6 58.3 29.22 58.3 653 2824 779 -3.26 0.11 0.12 0.000
7:31pm 185 2 3 41 66 73.6 58.2 29.22 58.2 653 2823 773 -3.31 0.11 0.12 0.000
7:32pm 210 6 6 41 67 73.6 58.0 29.22 57.2 653 2720 759 -3.45 0.11 0.12 0.000
7:33pm 206 3 6 41 67 73.6 58.0 29.22 58.0 653 2720 759 -3.39 0.11 0.12 0.000
7:34pm 199 3 6 41 67 73.6 57.9 29.22 57.9 653 2719 753 -3.43 0.11 0.12 0.000
7:35pm 249 1 6 41 68 73.6 57.9 29.22 57.9 653 2621 753 -3.38 0.11 0.12 0.000
7:36pm 249 0 1 41 68 73.6 57.8 29.22 57.8 653 2620 746 -3.42 0.11 0.12 0.000
7:37pm 249 0 1 41 68 73.6 57.8 29.22 57.8 653 2620 746 -3.37 0.11 0.12 0.000
7:38pm 241 1 2 41 69 73.6 57.8 29.22 57.8 653 2523 746 -3.31 0.11 0.12 0.000
7:39pm 241 0 2 41 69 73.6 57.7 29.22 57.7 653 2522 740 -3.35 0.11 0.12 0.000
7:40pm 242 1 2 41 69 73.8 57.6 29.22 57.6 652 2521 732 -3.40 0.11 0.12 0.000
7:41pm 244 0 3 41 68 73.8 57.6 29.22 57.6 652 2618 732 -3.34 0.11 0.12 0.000
7:42pm 244 0 3 41 69 73.8 57.5 29.22 57.5 652 2520 725 -3.38 0.11 0.12 0.000
7:43pm 244 0 3 41 69 73.8 57.5 29.22 57.5 651 2520 724 -3.33 0.11 0.12 0.000
7:44pm 143 3 5 41 68 73.8 57.5 29.22 57.5 651 2616 724 -3.27 0.11 0.12 0.000
7:45pm 143 0 5 41 68 73.8 57.4 29.22 57.4 651 2615 718 -3.32 0.11 0.12 0.000
7:46pm 152 1 3 41 69 73.8 57.3 29.22 57.3 651 2517 711 -3.36 0.11 0.12 0.000
7:47pm 152 0 3 41 69 73.8 57.3 29.22 57.3 651 2517 711 -3.31 0.11 0.12 0.000
7:48pm 152 0 3 41 69 73.8 57.3 29.22 57.3 651 2517 711 -3.25 0.11 0.12 0.000
7:49pm 152 1 3 43 69 73.8 57.3 29.22 57.3 650 2517 710 -3.20 0.11 0.12 0.000
7:50pm 184 0 4 41 69 73.8 57.2 29.22 57.2 651 2516 705 -3.24 0.11 0.12 0.000
7:51pm 184 0 2 41 69 73.8 57.2 29.22 57.2 650 2516 703 -3.19 0.11 0.12 0.000
7:52pm 184 1 2 41 69 73.8 57.1 29.22 57.1 650 2515 697 -3.24 0.11 0.12 0.000
7:53pm 181 3 4 41 69 73.8 57.1 29.22 57.1 651 2515 698 -3.18 0.11 0.12 0.000
7:54pm 181 0 4 41 69 73.8 57.0 29.22 57.0 651 2514 691 -3.23 0.11 0.12 0.000
7:55pm 181 1 4 41 69 73.8 57.0 29.22 57.0 651 2514 691 -3.18 0.11 0.12 0.000
7:56pm 181 0 1 41 69 73.8 57.0 29.22 57.0 652 2514 693 -3.12 0.11 0.12 0.000
7:57pm 181 0 1 41 70 73.8 56.9 29.22 56.9 652 2418 686 -3.17 0.11 0.12 0.000
7:58pm 176 1 4 41 70 73.8 56.9 29.22 56.9 652 2418 686 -3.12 0.11 0.12 0.000
7:59pm 176 0 4 41 70 73.8 56.8 29.22 56.8 651 2417 678 -3.16 0.11 0.12 0.000
8:00pm 176 1 4 41 70 73.8 56.8 29.22 56.8 650 2417 677 -3.11 0.11 0.12 0.000
8:01pm 176 0 1 41 70 73.8 56.7 29.22 56.7 649 2416 669 -3.16 0.11 0.12 0.000
8:02pm 176 0 2 41 70 73.8 56.7 29.23 56.7 647 2416 667 -3.11 0.11 0.12 0.000
8:03pm 176 0 2 41 70 73.8 56.7 29.23 56.7 647 2416 667 -3.05 0.11 0.12 0.000
8:04pm 176 0 2 41 71 73.8 56.5 29.23 56.5 646 2319 652 -3.20 0.11 0.12 0.000
8:05pm 176 0 2 41 71 73.8 56.5 29.23 56.5 646 2319 652 -3.15 0.11 0.12 0.000
8:06pm 176 0 0 41 71 73.8 56.5 29.23 56.5 643 2319 648 -3.10 0.11 0.12 0.000
8:07pm 176 0 1 41 71 73.8 56.4 29.23 56.4 643 2318 642 -3.15 0.11 0.12 0.000
8:08pm 176 0 1 43 71 73.8 56.3 29.23 56.3 642 2317 634 -3.19 0.11 0.12 0.000
8:09pm 176 0 1 41 71 73.8 56.2 29.23 56.2 643 2316 628 -3.24 0.11 0.12 0.000
8:10pm 176 0 1 41 71 73.8 56.2 29.23 56.2 642 2316 627 -3.19 0.11 0.12 0.000
8:11pm 176 0 0 41 72 73.8 56.1 29.23 56.1 642 2223 621 -3.23 0.11 0.12 0.000
8:12pm 176 0 0 41 72 73.8 56.0 29.23 56.0 641 2222 613 -3.28 0.11 0.12 0.000
8:13pm 176 0 0 41 72 74.0 56.0 29.23 56.0 641 2222 613 -3.23 0.11 0.12 0.000
8:14pm 176 0 1 41 72 74.0 56.0 29.23 56.0 640 2222 612 -3.17 0.11 0.12 0.000
8:15pm 176 0 1 41 72 74.0 55.9 29.23 55.9 640 2221 605 -3.22 0.11 0.12 0.000
8:16pm 176 0 0 41 73 74.0 55.8 29.23 55.8 640 2128 599 -3.27 0.11 0.12 0.000
8:17pm 176 0 0 41 73 74.0 55.7 29.23 55.7 640 2127 592 -3.31 0.11 0.12 0.000
8:18pm 176 0 0 41 73 74.0 55.7 29.24 55.7 639 2127 591 -3.25 0.11 0.12 0.000
8:19pm 176 0 0 41 73 74.0 55.6 29.24 55.6 638 2126 583 -3.30 0.11 0.12 0.000
8:20pm 176 0 0 41 73 74.0 55.5 29.24 55.5 638 2126 577 -3.34 0.11 0.12 0.000
8:21pm 176 2 3 41 74 74.0 55.5 29.24 55.5 638 2035 577 -3.29 0.11 0.12 0.000
8:22pm 176 0 3 41 73 74.0 55.4 29.24 55.4 638 2125 570 -3.33 0.11 0.12 0.000
8:23pm 176 0 3 41 73 74.0 55.4 29.24 55.4 638 2125 570 -3.28 0.11 0.12 0.000
8:24pm 176 0 3 41 74 74.0 55.3 29.24 55.3 639 2033 565 -3.32 0.11 0.12 0.000
8:25pm 176 0 3 41 74 74.0 55.3 29.24 55.3 639 2033 565 -3.27 0.11 0.12 0.000
8:26pm 176 0 0 41 74 74.0 55.3 29.24 55.3 638 2033 563 -3.21 0.11 0.12 0.000
8:27pm 176 0 0 41 74 74.0 55.2 29.24 55.2 638 2033 557 -3.26 0.11 0.12 0.000
8:28pm 176 1 2 41 74 74.0 55.2 29.24 55.2 638 2033 557 -3.20 0.11 0.12 0.000
8:29pm 176 0 2 41 74 74.0 55.1 29.24 55.1 639 2032 551 -3.25 0.11 0.12 0.000
8:30pm 176 0 2 41 74 74.0 55.1 29.24 55.1 639 2032 551 -3.20 0.11 0.12 0.000
8:31pm 176 1 1 41 75 74.0 55.0 29.24 55.0 638 1942 544 -3.24 0.11 0.12 0.000
8:32pm 176 2 2 41 75 74.0 55.0 29.24 55.0 638 1942 544 -3.19 0.11 0.12 0.000
8:33pm 176 0 2 41 75 74.0 54.9 29.24 54.9 638 1941 537 -3.24 0.11 0.12 0.000
8:34pm 176 3 3 41 75 74.0 54.9 29.24 54.9 639 1941 538 -3.18 0.11 0.12 0.000
8:35pm 176 0 3 41 75 74.0 54.9 29.24 54.9 638 1941 537 -3.13 0.11 0.12 0.000
8:36pm 176 1 2 41 75 74.0 54.8 29.24 54.8 638 1940 530 -3.18 0.11 0.12 0.000
8:37pm 176 1 2 41 75 74.0 54.8 29.24 54.8 638 1940 530 -3.12 0.11 0.12 0.000
8:38pm 176 1 2 41 75 74.0 54.7 29.24 54.7 638 1939 524 -3.17 0.11 0.12 0.000
8:39pm 176 0 2 41 74 74.0 54.7 29.24 54.7 638 2028 524 -3.12 0.11 0.12 0.000
8:40pm 176 0 2 41 75 74.0 54.7 29.24 54.7 638 1939 524 -3.07 0.11 0.12 0.000
8:41pm 176 2 2 41 74 74.0 54.6 29.24 54.6 638 2027 517 -3.12 0.11 0.12 0.000
8:42pm 176 0 2 41 74 74.0 54.6 29.24 54.6 638 2027 517 -3.07 0.11 0.12 0.000
8:43pm 176 0 2 41 74 74.0 54.5 29.24 54.5 637 2026 509 -3.12 0.11 0.12 0.000
8:44pm 176 0 2 41 74 74.0 54.5 29.24 54.5 637 2026 509 -3.06 0.11 0.12 0.000
8:45pm 176 0 2 41 75 74.0 54.5 29.24 54.5 637 1938 509 -3.01 0.11 0.12 0.000
8:46pm 176 0 0 41 75 74.0 54.5 29.24 54.5 636 1938 508 -2.96 0.11 0.12 0.000
8:47pm 176 1 2 41 75 74.0 54.4 29.24 54.4 636 1937 502 -3.01 0.11 0.12 0.000
8:48pm 176 1 2 41 75 74.0 54.3 29.24 54.3 636 1936 495 -3.06 0.11 0.12 0.000
8:49pm 176 0 2 41 74 74.0 54.3 29.24 54.3 635 2025 494 -3.01 0.11 0.12 0.000
8:50pm 176 0 2 41 75 74.0 54.2 29.24 54.2 635 1935 487 -3.06 0.11 0.12 0.000
8:51pm 176 0 3 41 75 74.0 54.2 29.24 54.2 635 1935 487 -3.01 0.11 0.12 0.000
8:52pm 176 0 3 41 75 74.0 54.2 29.24 54.2 635 1935 487 -2.96 0.11 0.12 0.000
8:53pm 176 0 3 41 75 74.2 54.2 29.24 54.2 634 1935 485 -2.91 0.11 0.12 0.000
8:54pm 176 1 3 41 75 74.2 54.1 29.24 54.1 634 1934 478 -2.96 0.11 0.12 0.000
8:55pm 176 0 3 41 75 74.2 54.1 29.24 54.1 634 1934 478 -2.92 0.11 0.12 0.000
8:56pm 176 1 2 41 75 74.2 54.1 29.24 54.1 634 1934 478 -2.87 0.11 0.12 0.000
8:57pm 176 0 2 41 75 74.2 54.1 29.24 54.1 633 1934 477 -2.82 0.11 0.12 0.000
8:58pm 176 0 2 41 75 74.2 54.1 29.24 54.1 631 1934 475 -2.78 0.11 0.12 0.000
8:59pm 176 0 2 41 75 74.2 54.0 29.25 54.0 630 1933 467 -2.83 0.11 0.12 0.000
9:00pm 176 1 2 41 75 74.2 54.0 29.25 54.0 628 1933 465 -2.78 0.11 0.12 0.000
9:01pm 220 0 4 41 75 74.2 54.0 29.25 54.0 628 1933 465 -2.74 0.11 0.12 0.000
9:02pm 220 1 4 41 75 74.2 54.0 29.25 54.0 628 1933 465 -2.69 0.11 0.12 0.000
9:03pm 220 2 4 41 76 74.2 54.0 29.25 54.0 627 1846 464 -2.65 0.11 0.12 0.000
9:04pm 220 0 4 41 76 74.2 54.0 29.25 54.0 627 1846 464 -2.60 0.11 0.12 0.000
9:05pm 220 1 4 41 76 74.2 53.9 29.25 53.9 625 1845 455 -2.66 0.11 0.12 0.000
9:06pm 220 2 3 41 77 74.2 53.9 29.25 53.9 624 1758 454 -2.61 0.11 0.12 0.000
9:07pm 220 0 3 41 77 74.2 53.9 29.25 53.9 624 1758 454 -2.57 0.11 0.12 0.000
9:08pm 221 1 3 41 77 74.2 53.9 29.25 53.9 623 1758 452 -2.53 0.11 0.12 0.000
9:09pm 222 0 3 41 77 74.2 53.9 29.25 53.9 623 1758 452 -2.49 0.11 0.12 0.000
9:10pm 224 1 3 41 77 74.2 53.9 29.25 53.9 622 1758 451 -2.45 0.11 0.12 0.000
9:11pm 224 0 2 41 77 74.2 53.8 29.25 53.8 622 1758 445 -2.50 0.11 0.11 0.000
9:12pm 224 0 3 41 77 74.2 53.8 29.25 53.8 622 1758 445 -2.47 0.11 0.11 0.000
9:13pm 212 2 4 41 76 74.2 53.8 29.25 53.8 622 1844 445 -2.42 0.11 0.11 0.000
9:14pm 212 0 4 41 77 74.2 53.8 29.25 53.8 622 1758 445 -2.38 0.11 0.11 0.000
9:15pm 210 2 4 41 76 74.2 53.9 29.25 53.9 622 1845 451 -2.25 0.11 0.11 0.000
9:16pm 210 0 2 41 76 74.2 53.8 29.25 53.8 622 1844 445 -2.31 0.11 0.11 0.000
9:17pm 210 0 2 41 75 74.2 53.9 29.25 53.9 622 1933 451 -2.17 0.11 0.11 0.000
9:18pm 210 1 3 41 75 74.2 53.9 29.25 53.9 622 1933 451 -2.13 0.11 0.11 0.000
9:19pm 210 1 3 41 75 74.2 53.9 29.25 53.9 622 1933 451 -2.10 0.11 0.11 0.000
9:20pm 210 0 3 41 75 74.2 53.9 29.25 53.9 621 1933 450 -2.07 0.11 0.11 0.000
9:21pm 210 0 2 41 75 74.2 53.9 29.26 53.9 621 1933 449 -2.03 0.11 0.11 0.000
9:22pm 210 0 2 41 75 74.2 54.0 29.26 54.0 620 1933 454 -1.90 0.11 0.11 0.000
9:23pm 210 0 2 41 75 74.2 54.0 29.26 54.0 618 1933 452 -1.87 0.11 0.11 0.000
9:24pm 210 0 2 41 76 74.2 54.1 29.26 54.1 618 1847 459 -1.74 0.11 0.11 0.000
9:25pm 196 3 3 41 76 74.2 54.1 29.26 54.1 619 1847 460 -1.71 0.11 0.11 0.000
9:26pm 212 1 4 41 75 74.2 54.2 29.26 54.2 619 1935 467 -1.58 0.11 0.11 0.000
9:27pm 212 2 4 41 76 74.2 54.2 29.26 54.2 619 1847 467 -1.55 0.11 0.11 0.000
9:28pm 251 2 4 41 76 74.2 54.2 29.26 54.2 619 1847 467 -1.53 0.11 0.11 0.000
9:29pm 212 1 4 41 75 74.2 54.2 29.26 54.2 619 1935 467 -1.50 0.11 0.11 0.000
9:30pm 212 2 4 41 75 74.2 54.2 29.26 54.2 619 1935 467 -1.48 0.11 0.11 0.000
9:31pm 210 1 3 41 75 74.3 54.3 29.26 54.3 616 1936 470 -1.36 0.11 0.11 0.000
9:32pm 281 1 3 41 74 74.3 54.4 29.26 54.4 616 2026 476 -1.23 0.11 0.11 0.000
9:33pm 281 0 3 41 74 74.3 54.4 29.26 54.4 616 2026 476 -1.21 0.11 0.11 0.000
9:34pm 281 0 3 41 75 74.3 54.5 29.26 54.5 615 1938 482 -1.09 0.11 0.11 0.000
9:35pm 197 1 3 41 74 74.3 54.4 29.26 54.4 614 2026 474 -1.17 0.11 0.11 0.000
9:36pm 197 2 2 41 74 74.3 54.5 29.26 54.5 613 2026 480 -1.06 0.11 0.11 0.000
9:37pm 197 0 2 41 74 74.3 54.5 29.26 54.5 612 2026 478 -1.04 0.11 0.11 0.000
9:38pm 197 1 2 41 74 74.3 54.5 29.26 54.5 611 2026 477 -1.02 0.11 0.11 0.000
9:39pm 197 0 2 41 74 74.3 54.5 29.27 54.5 610 2026 476 -1.00 0.11 0.11 0.000
9:40pm 197 0 3 41 74 74.3 54.5 29.27 54.5 610 2026 476 -0.99 0.11 0.11 0.000
9:41pm 197 1 3 41 74 74.3 54.5 29.27 54.5 610 2026 476 -0.97 0.11 0.11 0.000
9:42pm 197 0 3 41 74 74.3 54.5 29.27 54.5 609 2026 475 -0.96 0.11 0.11 0.000
9:43pm 199 2 3 41 74 74.3 54.5 29.27 54.5 609 2026 475 -0.94 0.11 0.11 0.000
9:44pm 199 0 3 41 74 74.3 54.6 29.27 54.6 609 2027 482 -0.83 0.11 0.11 0.000
9:45pm 199 1 3 41 75 74.3 54.6 29.27 54.6 610 1938 483 -0.81 0.11 0.11 0.000
9:46pm 235 3 4 41 74 74.3 54.6 29.26 54.6 611 2027 484 -0.80 0.11 0.11 0.000
9:47pm 235 3 4 41 74 74.3 54.6 29.27 54.6 610 2027 483 -0.79 0.11 0.11 0.000
9:48pm 187 6 6 41 74 74.3 54.6 29.27 53.1 610 2027 483 -0.77 0.11 0.11 0.000
9:49pm 191 0 6 43 74 74.3 54.7 29.27 54.7 610 2028 489 -0.66 0.11 0.11 0.000
9:50pm 191 1 6 41 75 74.3 54.7 29.27 54.7 610 1939 489 -0.65 0.11 0.11 0.000
9:51pm 187 4 4 41 74 74.3 54.7 29.27 54.3 610 2028 489 -0.64 0.11 0.11 0.000
9:52pm 188 2 5 41 74 74.3 54.7 29.26 54.7 611 2028 491 -0.63 0.11 0.11 0.000
9:53pm 213 4 5 41 74 74.3 54.7 29.26 54.3 612 2028 492 -0.62 0.11 0.11 0.000
9:54pm 213 2 5 41 74 74.3 54.7 29.27 54.7 610 2028 489 -0.61 0.11 0.11 0.000
9:55pm 213 1 5 41 74 74.3 54.7 29.27 54.7 610 2028 489 -0.60 0.11 0.11 0.000
9:56pm 193 3 3 41 74 74.3 54.7 29.27 54.7 609 2028 488 -0.59 0.11 0.11 0.000
9:57pm 193 1 3 41 74 74.3 54.7 29.27 54.7 609 2028 488 -0.58 0.11 0.11 0.000
9:58pm 193 0 3 41 73 74.3 54.7 29.27 54.7 609 2118 488 -0.57 0.11 0.11 0.000
9:59pm 193 0 3 41 74 74.3 54.8 29.27 54.8 609 2029 495 -0.46 0.11 0.11 0.000
10:00pm 193 2 3 41 74 74.3 54.7 29.27 54.7 609 2028 487 -0.56 0.11 0.11 0.000
10:01pm 193 0 3 41 74 74.3 54.7 29.27 54.7 609 2028 487 -0.55 0.11 0.11 0.000
10:02pm 193 2 3 41 74 74.3 54.7 29.27 54.7 609 2028 487 -0.54 0.11 0.11 0.000
10:03pm 193 1 3 41 74 74.3 54.7 29.27 54.7 609 2028 487 -0.53 0.11 0.11 0.000
10:04pm 193 0 3 41 74 74.3 54.7 29.27 54.7 609 2028 487 -0.52 0.11 0.11 0.000
10:05pm 218 3 5 41 74 74.3 54.7 29.27 54.7 608 2028 486 -0.51 0.11 0.11 0.000
10:06pm 218 0 3 41 74 74.3 54.6 29.27 54.6 608 2027 479 -0.60 0.11 0.11 0.000
10:07pm 218 0 3 41 74 74.3 54.6 29.27 54.6 608 2027 479 -0.59 0.11 0.11 0.000
10:08pm 218 1 3 41 75 74.3 54.6 29.27 54.6 608 1938 479 -0.58 0.11 0.11 0.000
10:09pm 218 0 3 41 74 74.3 54.6 29.27 54.6 608 2027 479 -0.57 0.11 0.11 0.000
10:10pm 216 1 3 41 74 74.3 54.5 29.27 54.5 607 2026 472 -0.66 0.11 0.11 0.000
10:11pm 216 0 2 41 74 74.3 54.5 29.27 54.5 607 2026 472 -0.65 0.11 0.11 0.000
10:12pm 216 0 2 41 74 74.3 54.5 29.27 54.5 607 2026 472 -0.64 0.11 0.11 0.000
10:13pm 216 0 2 41 74 74.3 54.5 29.27 54.5 607 2026 472 -0.63 0.11 0.11 0.000
10:14pm 212 2 2 41 74 74.3 54.4 29.27 54.4 607 2026 465 -0.72 0.11 0.11 0.000
10:15pm 243 2 4 41 74 74.3 54.4 29.27 54.4 607 2026 465 -0.71 0.11 0.11 0.000
10:16pm 161 3 5 41 74 74.3 54.4 29.27 54.4 607 2026 465 -0.70 0.11 0.11 0.000
10:17pm 264 1 5 41 75 74.3 54.4 29.27 54.4 607 1937 465 -0.68 0.11 0.11 0.000
10:18pm 264 1 5 41 75 74.3 54.4 29.27 54.4 607 1937 465 -0.67 0.11 0.11 0.000
10:19pm 264 0 5 41 75 74.3 54.4 29.27 54.4 607 1937 465 -0.66 0.11 0.11 0.000
10:20pm 264 1 5 41 75 74.3 54.4 29.27 54.4 607 1937 465 -0.65 0.11 0.11 0.000
10:21pm 264 2 2 41 75 74.3 54.4 29.27 54.4 607 1937 465 -0.64 0.11 0.11 0.000
10:22pm 231 3 3 41 75 74.3 54.4 29.27 54.4 607 1937 465 -0.63 0.11 0.11 0.000
10:23pm 242 3 4 41 75 74.3 54.4 29.27 54.4 607 1937 465 -0.62 0.11 0.11 0.000
10:24pm 244 1 4 41 75 74.3 54.4 29.27 54.4 608 1937 466 -0.61 0.11 0.11 0.000
10:25pm 243 0 4 41 75 74.3 54.4 29.27 54.4 608 1937 466 -0.60 0.11 0.11 0.000
10:26pm 243 0 0 41 74 74.3 54.4 29.27 54.4 608 2026 466 -0.59 0.11 0.11 0.000
10:27pm 243 0 1 41 75 74.3 54.4 29.27 54.4 608 1937 466 -0.58 0.11 0.11 0.000
10:28pm 243 1 3 41 75 74.3 54.4 29.27 54.4 608 1937 466 -0.57 0.11 0.11 0.000
10:29pm 224 0 3 41 74 74.3 54.4 29.27 54.4 608 2026 466 -0.56 0.11 0.11 0.000
10:30pm 225 0 3 41 74 74.5 54.4 29.27 54.4 608 2026 466 -0.55 0.11 0.11 0.000
10:31pm 225 2 3 41 75 74.5 54.4 29.27 54.4 608 1937 466 -0.54 0.11 0.11 0.000
10:32pm 208 0 3 41 74 74.5 54.4 29.27 54.4 609 2026 467 -0.53 0.11 0.11 0.000
10:33pm 208 1 3 41 75 74.5 54.4 29.27 54.4 609 1937 467 -0.52 0.11 0.11 0.000
10:34pm 209 2 3 41 75 74.5 54.3 29.27 54.3 609 1936 461 -0.61 0.11 0.11 0.000
10:35pm 209 1 3 41 75 74.5 54.3 29.27 54.3 609 1936 461 -0.60 0.11 0.11 0.000
10:36pm 209 1 3 41 75 74.5 54.3 29.27 54.3 609 1936 461 -0.59 0.11 0.11 0.000
10:37pm 209 1 3 41 75 74.5 54.3 29.27 54.3 609 1936 461 -0.58 0.11 0.11 0.000
10:38pm 209 0 3 41 75 74.5 54.3 29.27 54.3 609 1936 461 -0.57 0.11 0.11 0.000
10:39pm 209 1 3 41 75 74.5 54.2 29.27 54.2 609 1935 454 -0.66 0.11 0.11 0.000
10:40pm 209 1 3 41 75 74.5 54.3 29.27 54.3 608 1936 459 -0.55 0.11 0.11 0.000
10:41pm 209 0 1 41 75 74.5 54.2 29.27 54.2 608 1935 453 -0.64 0.11 0.11 0.000
10:42pm 209 0 1 41 75 74.5 54.2 29.27 54.2 608 1935 453 -0.63 0.11 0.11 0.000
10:43pm 209 0 1 41 75 74.5 54.2 29.27 54.2 608 1935 453 -0.62 0.11 0.11 0.000
10:44pm 209 0 1 41 75 74.5 54.2 29.27 54.2 609 1935 454 -0.61 0.11 0.11 0.000
10:45pm 209 0 4 41 75 74.5 54.2 29.27 54.2 609 1935 454 -0.60 0.11 0.11 0.000
10:46pm 213 1 1 41 75 74.5 54.2 29.27 54.2 609 1935 454 -0.59 0.11 0.11 0.000
10:47pm 213 1 1 41 76 74.3 54.3 29.27 54.3 609 1848 461 -0.48 0.11 0.11 0.000
10:48pm 213 2 2 41 76 74.3 54.3 29.27 54.3 608 1848 459 -0.47 0.11 0.11 0.000
10:49pm 213 1 2 41 76 74.3 54.3 29.27 54.3 608 1848 459 -0.46 0.11 0.11 0.000
10:50pm 213 0 2 41 75 74.3 54.3 29.27 54.3 608 1936 459 -0.46 0.11 0.11 0.000
10:51pm 213 0 2 41 76 74.3 54.3 29.27 54.3 608 1848 459 -0.45 0.11 0.11 0.000
10:52pm 213 1 2 41 76 74.3 54.3 29.27 54.3 607 1848 458 -0.44 0.11 0.11 0.000
10:53pm 213 0 2 41 76 74.2 54.3 29.27 54.3 608 1848 459 -0.43 0.11 0.11 0.000
10:54pm 213 0 2 41 76 74.2 54.3 29.27 54.3 608 1848 459 -0.43 0.11 0.11 0.000
10:55pm 242 1 3 41 76 74.2 54.3 29.27 54.3 607 1848 458 -0.42 0.11 0.11 0.000
10:56pm 242 0 1 41 76 74.2 54.3 29.27 54.3 608 1848 459 -0.41 0.11 0.11 0.000
10:57pm 242 0 1 41 76 74.2 54.2 29.27 54.2 608 1847 453 -0.50 0.11 0.11 0.000
10:58pm 242 0 1 41 76 74.0 54.2 29.27 54.2 607 1847 452 -0.50 0.11 0.11 0.000
10:59pm 242 0 1 41 76 74.0 54.2 29.27 54.2 607 1847 452 -0.49 0.11 0.11 0.000
11:00pm 242 0 1 41 77 74.0 54.3 29.27 54.3 607 1762 458 -0.38 0.11 0.11 0.000
11:01pm 242 0 2 41 77 74.0 54.2 29.27 54.2 608 1761 453 -0.47 0.11 0.11 0.000
11:02pm 243 2 2 41 76 74.0 54.2 29.27 54.2 608 1847 453 -0.46 0.11 0.11 0.000
11:03pm 217 0 3 41 76 73.8 54.2 29.27 54.2 608 1847 453 -0.46 0.11 0.11 0.000
11:04pm 218 2 3 41 76 73.8 54.2 29.27 54.2 608 1847 453 -0.45 0.11 0.11 0.000
11:05pm 218 0 3 41 76 73.8 54.1 29.27 54.1 607 1847 445 -0.54 0.11 0.11 0.000
11:06pm 218 0 2 41 76 73.8 54.2 29.27 54.2 608 1847 453 -0.43 0.11 0.11 0.000
11:07pm 218 1 2 41 77 73.8 54.1 29.27 54.1 607 1760 445 -0.52 0.11 0.11 0.000
11:08pm 218 1 2 41 77 73.8 54.2 29.27 54.2 607 1761 452 -0.42 0.11 0.11 0.000
11:09pm 178 1 4 41 76 73.8 54.1 29.27 54.1 608 1847 446 -0.51 0.11 0.11 0.000
11:10pm 178 1 4 41 76 73.8 54.1 29.27 54.1 608 1847 446 -0.50 0.11 0.11 0.000
11:11pm 178 0 1 41 76 73.8 54.1 29.27 54.1 607 1847 445 -0.49 0.11 0.11 0.000
11:12pm 214 3 4 41 76 73.8 54.1 29.27 54.1 608 1847 446 -0.49 0.11 0.11 0.000
11:13pm 228 3 4 41 76 73.8 54.2 29.27 54.2 608 1847 453 -0.38 0.11 0.11 0.000
11:14pm 229 1 4 41 76 73.8 54.1 29.27 54.1 608 1847 446 -0.47 0.11 0.11 0.000
11:15pm 286 2 4 41 77 73.8 54.0 29.27 54.0 608 1759 440 -0.56 0.11 0.11 0.000
11:16pm 283 0 2 41 77 73.8 54.1 29.27 54.1 608 1760 446 -0.45 0.11 0.11 0.000
11:17pm 284 1 2 41 76 73.8 54.0 29.27 54.0 608 1846 440 -0.55 0.11 0.11 0.000
11:18pm 213 1 3 41 77 73.8 54.0 29.27 54.0 608 1759 440 -0.54 0.11 0.11 0.000
11:19pm 202 2 4 41 76 73.8 54.0 29.27 54.0 608 1846 440 -0.53 0.11 0.11 0.000
11:20pm 202 1 4 41 77 73.8 54.0 29.27 54.0 608 1759 440 -0.52 0.11 0.11 0.000
11:21pm 285 2 3 41 77 73.8 54.0 29.27 54.0 608 1759 440 -0.51 0.11 0.11 0.000
11:22pm 285 0 3 41 77 73.8 54.0 29.27 54.0 607 1759 438 -0.50 0.11 0.11 0.000
11:23pm 285 0 3 41 77 73.8 53.9 29.27 53.9 607 1758 432 -0.59 0.11 0.11 0.000
11:24pm 285 1 3 41 77 73.8 53.9 29.27 53.9 607 1758 432 -0.58 0.11 0.11 0.000
11:25pm 210 1 3 41 77 73.8 53.9 29.27 53.9 607 1758 432 -0.57 0.11 0.11 0.000
11:26pm 210 0 1 41 77 73.8 53.9 29.27 53.9 607 1758 432 -0.56 0.11 0.11 0.000
11:27pm 210 0 1 41 77 73.8 53.9 29.27 53.9 607 1758 432 -0.55 0.11 0.11 0.000
11:28pm 210 0 1 41 77 73.8 53.9 29.27 53.9 607 1758 432 -0.54 0.11 0.11 0.000
11:29pm 210 0 1 41 77 73.8 53.8 29.27 53.8 607 1758 425 -0.63 0.11 0.11 0.000
11:30pm 229 2 2 41 77 73.8 53.8 29.27 53.8 607 1758 425 -0.62 0.11 0.11 0.000
11:31pm 231 1 2 41 77 73.8 53.7 29.27 53.7 608 1757 420 -0.71 0.11 0.11 0.000
11:32pm 231 0 2 41 78 73.8 53.7 29.27 53.7 607 1671 419 -0.70 0.11 0.11 0.000
11:33pm 232 0 2 41 78 73.8 53.7 29.27 53.7 607 1671 419 -0.69 0.11 0.11 0.000
11:34pm 232 0 2 41 78 73.8 53.6 29.27 53.6 608 1671 413 -0.78 0.11 0.11 0.000
11:35pm 232 1 2 41 78 73.8 53.6 29.27 53.6 607 1671 412 -0.77 0.11 0.11 0.000
11:36pm 232 0 2 41 78 73.8 53.6 29.27 53.6 607 1671 412 -0.75 0.11 0.11 0.000
11:37pm 232 1 2 41 78 73.8 53.6 29.27 53.6 607 1671 412 -0.74 0.11 0.11 0.000
11:38pm 232 0 2 41 78 73.8 53.5 29.27 53.5 607 1670 405 -0.83 0.11 0.11 0.000
11:39pm 232 1 2 41 78 73.8 53.5 29.27 53.5 607 1670 405 -0.81 0.11 0.11 0.000
11:40pm 232 0 2 41 78 73.8 53.5 29.27 53.5 607 1670 405 -0.80 0.11 0.11 0.000
11:41pm 232 1 2 41 78 73.8 53.4 29.27 53.4 607 1669 399 -0.89 0.11 0.11 0.000
11:42pm 233 2 2 41 78 73.8 53.4 29.27 53.4 607 1669 399 -0.87 0.11 0.11 0.000
11:43pm 233 1 2 41 78 73.8 53.4 29.27 53.4 607 1669 399 -0.86 0.11 0.11 0.000
11:44pm 233 1 2 41 78 73.8 53.4 29.27 53.4 606 1669 397 -0.84 0.11 0.11 0.000
11:45pm 269 1 4 41 78 73.8 53.4 29.27 53.4 607 1669 399 -0.83 0.11 0.11 0.000
11:46pm 269 0 2 41 78 73.8 53.3 29.27 53.3 606 1669 391 -0.91 0.11 0.11 0.000
11:47pm 269 1 2 41 78 73.8 53.3 29.27 53.3 607 1669 392 -0.90 0.11 0.11 0.000
11:48pm 269 1 2 41 79 73.8 53.3 29.27 53.3 606 1584 391 -0.88 0.11 0.11 0.000
11:49pm 269 0 2 41 79 73.8 53.2 29.27 53.2 606 1583 384 -0.97 0.11 0.11 0.000
11:50pm 269 0 2 41 79 73.8 53.2 29.27 53.2 605 1583 383 -0.95 0.11 0.11 0.000
11:51pm 269 0 1 41 79 73.8 53.2 29.27 53.2 606 1583 384 -0.94 0.11 0.11 0.000
11:52pm 269 1 2 41 79 73.8 53.2 29.27 53.2 606 1583 384 -0.92 0.11 0.11 0.000
11:53pm 269 1 2 41 79 73.8 53.1 29.27 53.1 606 1583 378 -1.00 0.11 0.11 0.000
11:54pm 269 0 2 41 79 73.8 53.1 29.27 53.1 606 1583 378 -0.99 0.11 0.11 0.000
11:55pm 258 2 2 41 79 73.8 53.1 29.27 53.1 606 1583 378 -0.97 0.11 0.11 0.000
11:56pm 260 0 3 41 79 73.8 53.0 29.27 53.0 605 1582 370 -1.05 0.11 0.11 0.000
11:57pm 260 1 3 41 79 73.8 53.0 29.27 53.0 604 1582 369 -1.03 0.11 0.11 0.000
11:58pm 260 1 3 41 80 73.8 52.9 29.27 52.9 605 1498 363 -1.12 0.11 0.11 0.000
11:59pm 253 2 3 41 80 73.8 52.9 29.27 52.9 604 1498 362 -1.10 0.11 0.11 0.000
|
Data provided from: Mark Hofmann's Bel Air, MD Weather Station |